Wetterdaten: Dienstag, 01.12.2020
Datum Zeit Temp. Aussen Temp. o. S. Temp +5cm Feuchte Auss Luftdruck Regen Sonnenschein Regendauer Solar Windben Empfang
01.12.2020 00:00 4,5 C 3,9 C 3,9 C 98 % 1014,2 hPa 0,0 l/m 0 min 0 min 0 W/m 22,5 km/h (4 Bft) 95,65 %
01.12.2020 00:02 4,5 C 3,9 C 3,9 C 99 % 1014,1 hPa 0,0 l/m 0 min 0 min 0 W/m 25,7 km/h (4 Bft) 92,31 %
01.12.2020 00:04 4,5 C 3,9 C 3,9 C 99 % 1014,0 hPa 0,0 l/m 0 min 0 min 0 W/m 29,0 km/h (5 Bft) 97,87 %
01.12.2020 00:08 4,5 C 3,9 C 3,9 C 99 % 1014,1 hPa 0,0 l/m 0 min 4 min 0 W/m 32,2 km/h (5 Bft) 97,00 %
01.12.2020 00:10 4,5 C 3,9 C 3,9 C 99 % 1014,0 hPa 0,0 l/m 0 min 2 min 0 W/m 32,2 km/h (5 Bft) 97,87 %
01.12.2020 00:12 4,5 C 3,9 C 3,9 C 99 % 1014,1 hPa 0,2 l/m 0 min 2 min 0 W/m 45,1 km/h (6 Bft) 97,87 %
01.12.2020 00:14 4,5 C 3,9 C 3,9 C 99 % 1014,0 hPa 0,0 l/m 0 min 2 min 0 W/m 29,0 km/h (5 Bft) 97,83 %
01.12.2020 00:16 4,5 C 3,9 C 3,9 C 99 % 1014,0 hPa 0,2 l/m 0 min 2 min 0 W/m 41,8 km/h (6 Bft) 97,87 %
01.12.2020 00:18 4,5 C 3,9 C 3,9 C 98 % 1014,0 hPa 0,2 l/m 0 min 2 min 0 W/m 41,8 km/h (6 Bft) 97,87 %
01.12.2020 00:20 4,5 C 3,9 C 3,9 C 98 % 1014,0 hPa 0,0 l/m 0 min 2 min 0 W/m 29,0 km/h (5 Bft) 95,74 %
01.12.2020 00:22 4,5 C 3,9 C 3,9 C 98 % 1014,0 hPa 0,2 l/m 0 min 2 min 0 W/m 32,2 km/h (5 Bft) 97,87 %
01.12.2020 00:24 4,5 C 3,9 C 3,9 C 98 % 1014,0 hPa 0,0 l/m 0 min 2 min 0 W/m 32,2 km/h (5 Bft) 95,74 %
01.12.2020 00:26 4,5 C 3,9 C 3,9 C 98 % 1014,0 hPa 0,0 l/m 0 min 2 min 0 W/m 29,0 km/h (5 Bft) 94,74 %
01.12.2020 00:28 4,5 C 3,9 C 3,9 C 98 % 1014,0 hPa 0,2 l/m 0 min 2 min 0 W/m 38,6 km/h (5 Bft) 95,65 %
01.12.2020 00:30 4,5 C 3,9 C 3,9 C 98 % 1014,0 hPa 0,0 l/m 0 min 2 min 0 W/m 29,0 km/h (5 Bft) 95,74 %
01.12.2020 00:32 4,5 C 3,9 C 3,9 C 98 % 1013,9 hPa 0,2 l/m 0 min 2 min 0 W/m 19,3 km/h (3 Bft) 95,74 %
01.12.2020 00:34 4,5 C 3,9 C 3,9 C 98 % 1013,9 hPa 0,2 l/m 0 min 2 min 0 W/m 29,0 km/h (5 Bft) 95,74 %
01.12.2020 00:36 4,5 C 3,9 C 3,9 C 98 % 1014,0 hPa 0,0 l/m 0 min 2 min 0 W/m 25,7 km/h (4 Bft) 95,74 %
01.12.2020 00:38 4,5 C 3,9 C 3,9 C 98 % 1014,0 hPa 0,2 l/m 0 min 2 min 0 W/m 22,5 km/h (4 Bft) 95,92 %
01.12.2020 00:40 4,5 C 3,9 C 3,9 C 98 % 1014,0 hPa 0,0 l/m 0 min 2 min 0 W/m 25,7 km/h (4 Bft) 95,74 %
01.12.2020 00:42 4,5 C 3,9 C 3,9 C 98 % 1014,0 hPa 0,0 l/m 0 min 2 min 0 W/m 22,5 km/h (4 Bft) 93,62 %
01.12.2020 00:44 4,5 C 3,9 C 3,9 C 98 % 1013,9 hPa 0,2 l/m 0 min 2 min 0 W/m 22,5 km/h (4 Bft) 97,87 %
01.12.2020 00:46 4,5 C 3,9 C 3,9 C 98 % 1013,9 hPa 0,0 l/m 0 min 2 min 0 W/m 32,2 km/h (5 Bft) 98,11 %
01.12.2020 00:48 4,5 C 3,9 C 3,9 C 98 % 1013,8 hPa 0,0 l/m 0 min 2 min 0 W/m 25,7 km/h (4 Bft) 97,83 %
01.12.2020 00:50 4,5 C 3,9 C 3,9 C 98 % 1014,0 hPa 0,2 l/m 0 min 2 min 0 W/m 32,2 km/h (5 Bft) 97,87 %
01.12.2020 00:52 4,5 C 3,9 C 3,9 C 98 % 1013,9 hPa 0,0 l/m 0 min 2 min 0 W/m 29,0 km/h (5 Bft) 97,87 %
01.12.2020 00:54 4,5 C 3,9 C 3,9 C 98 % 1013,7 hPa 0,0 l/m 0 min 2 min 0 W/m 32,2 km/h (5 Bft) 97,87 %
01.12.2020 00:56 4,5 C 3,9 C 3,9 C 99 % 1013,7 hPa 0,2 l/m 0 min 2 min 0 W/m 38,6 km/h (5 Bft) 97,37 %
01.12.2020 00:58 4,5 C 3,9 C 3,9 C 99 % 1013,6 hPa 0,0 l/m 0 min 2 min 0 W/m 29,0 km/h (5 Bft) 97,87 %
01.12.2020 01:00 4,5 C 3,9 C 3,9 C 99 % 1013,6 hPa 0,0 l/m 0 min 2 min 0 W/m 35,4 km/h (5 Bft) 93,62 %
01.12.2020 01:02 4,5 C 3,9 C 3,9 C 99 % 1013,5 hPa 0,0 l/m 0 min 2 min 0 W/m 29,0 km/h (5 Bft) 95,74 %
01.12.2020 01:04 4,5 C 3,9 C 3,9 C 99 % 1013,5 hPa 0,2 l/m 0 min 0 min 0 W/m 32,2 km/h (5 Bft) 97,87 %
01.12.2020 01:06 4,5 C 3,9 C 3,9 C 99 % 1013,5 hPa 0,0 l/m 0 min 0 min 0 W/m 41,8 km/h (6 Bft) 93,62 %
01.12.2020 01:08 4,5 C 3,9 C 3,9 C 99 % 1013,5 hPa 0,0 l/m 0 min 0 min 0 W/m 45,1 km/h (6 Bft) 97,87 %
01.12.2020 01:10 4,5 C 3,9 C 3,9 C 99 % 1013,5 hPa 0,0 l/m 0 min 0 min 0 W/m 32,2 km/h (5 Bft) 95,83 %
01.12.2020 01:12 4,5 C 3,9 C 3,9 C 99 % 1013,5 hPa 0,0 l/m 0 min 0 min 0 W/m 38,6 km/h (5 Bft) 97,87 %
01.12.2020 01:14 4,5 C 3,9 C 3,9 C 99 % 1013,5 hPa 0,0 l/m 0 min 0 min 0 W/m 32,2 km/h (5 Bft) 100,00 %
01.12.2020 01:16 4,5 C 3,9 C 3,9 C 99 % 1013,4 hPa 0,0 l/m 0 min 2 min 0 W/m 38,6 km/h (5 Bft) 100,00 %
01.12.2020 01:18 4,5 C 3,9 C 3,9 C 99 % 1013,4 hPa 0,0 l/m 0 min 0 min 0 W/m 32,2 km/h (5 Bft) 100,00 %
01.12.2020 01:20 4,5 C 3,9 C 3,9 C 99 % 1013,4 hPa 0,0 l/m 0 min 2 min 0 W/m 35,4 km/h (5 Bft) 100,00 %
01.12.2020 01:22 4,6 C 3,9 C 3,9 C 99 % 1013,5 hPa 0,0 l/m 0 min 2 min 0 W/m 29,0 km/h (5 Bft) 100,00 %
01.12.2020 01:24 4,6 C 3,9 C 3,9 C 99 % 1013,4 hPa 0,0 l/m 0 min 2 min 0 W/m 29,0 km/h (5 Bft) 97,87 %
01.12.2020 01:26 4,6 C 3,9 C 3,9 C 99 % 1013,4 hPa 0,0 l/m 0 min 0 min 0 W/m 29,0 km/h (5 Bft) 97,87 %
01.12.2020 01:28 4,6 C 3,9 C 3,9 C 99 % 1013,4 hPa 0,0 l/m 0 min 0 min 0 W/m 22,5 km/h (4 Bft) 100,00 %
01.12.2020 01:30 4,6 C 3,9 C 3,9 C 99 % 1013,4 hPa 0,0 l/m 0 min 0 min 0 W/m 38,6 km/h (5 Bft) 97,87 %
01.12.2020 01:32 4,6 C 3,9 C 3,9 C 99 % 1013,3 hPa 0,0 l/m 0 min 0 min 0 W/m 29,0 km/h (5 Bft) 100,00 %
01.12.2020 01:34 4,6 C 3,9 C 4,5 C 99 % 1013,3 hPa 0,0 l/m 0 min 2 min 0 W/m 32,2 km/h (5 Bft) 100,00 %
01.12.2020 01:36 4,6 C 3,9 C 4,5 C 99 % 1013,3 hPa 0,0 l/m 0 min 2 min 0 W/m 32,2 km/h (5 Bft) 100,00 %
01.12.2020 01:38 4,6 C 3,9 C 4,5 C 99 % 1013,3 hPa 0,0 l/m 0 min 2 min 0 W/m 22,5 km/h (4 Bft) 100,00 %
01.12.2020 01:40 4,6 C 3,9 C 4,5 C 99 % 1013,3 hPa 0,0 l/m 0 min 2 min 0 W/m 29,0 km/h (5 Bft) 100,00 %
01.12.2020 01:42 4,6 C 3,9 C 4,5 C 99 % 1013,4 hPa 0,0 l/m 0 min 2 min 0 W/m 32,2 km/h (5 Bft) 97,87 %
01.12.2020 01:44 4,7 C 3,9 C 4,5 C 99 % 1013,3 hPa 0,0 l/m 0 min 2 min 0 W/m 25,7 km/h (4 Bft) 100,00 %
01.12.2020 01:46 4,7 C 3,9 C 4,5 C 99 % 1013,2 hPa 0,0 l/m 0 min 2 min 0 W/m 25,7 km/h (4 Bft) 100,00 %
01.12.2020 01:48 4,7 C 3,9 C 4,5 C 99 % 1013,3 hPa 0,0 l/m 0 min 2 min 0 W/m 22,5 km/h (4 Bft) 100,00 %
01.12.2020 01:50 4,7 C 3,9 C 4,5 C 99 % 1013,3 hPa 0,0 l/m 0 min 2 min 0 W/m 29,0 km/h (5 Bft) 100,00 %
01.12.2020 01:52 4,7 C 3,9 C 4,5 C 99 % 1013,2 hPa 0,0 l/m 0 min 2 min 0 W/m 22,5 km/h (4 Bft) 100,00 %
01.12.2020 01:54 4,8 C 3,9 C 4,5 C 99 % 1013,2 hPa 0,0 l/m 0 min 2 min 0 W/m 38,6 km/h (5 Bft) 100,00 %
01.12.2020 01:56 4,8 C 3,9 C 4,5 C 99 % 1013,1 hPa 0,0 l/m 0 min 2 min 0 W/m 35,4 km/h (5 Bft) 97,83 %
01.12.2020 01:58 4,8 C 3,9 C 4,5 C 99 % 1013,1 hPa 0,0 l/m 0 min 2 min 0 W/m 29,0 km/h (5 Bft) 100,00 %
01.12.2020 02:00 4,8 C 4,4 C 4,5 C 99 % 1013,2 hPa 0,0 l/m 0 min 2 min 0 W/m 38,6 km/h (5 Bft) 100,00 %
01.12.2020 02:02 4,8 C 4,4 C 4,5 C 99 % 1013,1 hPa 0,0 l/m 0 min 2 min 0 W/m 38,6 km/h (5 Bft) 100,00 %
01.12.2020 02:04 4,8 C 4,4 C 4,5 C 99 % 1013,2 hPa 0,0 l/m 0 min 2 min 0 W/m 25,7 km/h (4 Bft) 100,00 %
01.12.2020 02:06 4,8 C 4,4 C 4,5 C 99 % 1013,1 hPa 0,0 l/m 0 min 2 min 0 W/m 32,2 km/h (5 Bft) 100,00 %
01.12.2020 02:08 4,9 C 4,4 C 4,5 C 99 % 1013,1 hPa 0,0 l/m 0 min 2 min 0 W/m 32,2 km/h (5 Bft) 100,00 %
01.12.2020 02:10 4,9 C 4,4 C 4,5 C 99 % 1013,0 hPa 0,0 l/m 0 min 2 min 0 W/m 25,7 km/h (4 Bft) 100,00 %
01.12.2020 02:12 4,9 C 4,4 C 4,5 C 99 % 1013,0 hPa 0,0 l/m 0 min 2 min 0 W/m 32,2 km/h (5 Bft) 100,00 %
01.12.2020 02:14 4,9 C 4,4 C 4,5 C 99 % 1013,0 hPa 0,0 l/m 0 min 2 min 0 W/m 29,0 km/h (5 Bft) 97,87 %
01.12.2020 02:16 4,9 C 4,4 C 4,5 C 99 % 1012,9 hPa 0,0 l/m 0 min 2 min 0 W/m 29,0 km/h (5 Bft) 100,00 %
01.12.2020 02:18 4,9 C 4,4 C 4,5 C 99 % 1013,0 hPa 0,0 l/m 0 min 2 min 0 W/m 29,0 km/h (5 Bft) 100,00 %
01.12.2020 02:20 4,9 C 4,4 C 4,5 C 99 % 1012,9 hPa 0,0 l/m 0 min 2 min 0 W/m 29,0 km/h (5 Bft) 100,00 %
01.12.2020 02:22 4,9 C 4,4 C 4,5 C 99 % 1013,0 hPa 0,0 l/m 0 min 2 min 0 W/m 29,0 km/h (5 Bft) 97,87 %
01.12.2020 02:24 4,9 C 4,4 C 4,5 C 99 % 1013,0 hPa 0,0 l/m 0 min 2 min 0 W/m 25,7 km/h (4 Bft) 100,00 %
01.12.2020 02:26 5,0 C 4,4 C 4,5 C 99 % 1013,1 hPa 0,0 l/m 0 min 2 min 0 W/m 25,7 km/h (4 Bft) 100,00 %
01.12.2020 02:28 5,0 C 4,4 C 4,5 C 99 % 1013,0 hPa 0,0 l/m 0 min 2 min 0 W/m 22,5 km/h (4 Bft) 97,87 %
01.12.2020 02:30 5,0 C 4,4 C 4,5 C 99 % 1013,0 hPa 0,0 l/m 0 min 2 min 0 W/m 22,5 km/h (4 Bft) 97,87 %
01.12.2020 02:32 5,0 C 4,4 C 4,5 C 99 % 1013,0 hPa 0,0 l/m 0 min 2 min 0 W/m 29,0 km/h (5 Bft) 95,74 %
01.12.2020 02:34 5,0 C 4,4 C 4,5 C 99 % 1013,0 hPa 0,0 l/m 0 min 2 min 0 W/m 19,3 km/h (3 Bft) 97,92 %
01.12.2020 02:36 5,0 C 4,4 C 4,5 C 99 % 1013,0 hPa 0,0 l/m 0 min 0 min 0 W/m 16,1 km/h (3 Bft) 97,87 %
01.12.2020 02:38 5,0 C 4,4 C 4,5 C 99 % 1013,0 hPa 0,0 l/m 0 min 2 min 0 W/m 22,5 km/h (4 Bft) 97,87 %
01.12.2020 02:40 5,0 C 4,4 C 4,5 C 99 % 1013,0 hPa 0,0 l/m 0 min 2 min 0 W/m 35,4 km/h (5 Bft) 97,87 %
01.12.2020 02:42 5,0 C 4,4 C 4,5 C 99 % 1013,0 hPa 0,0 l/m 0 min 2 min 0 W/m 25,7 km/h (4 Bft) 97,83 %
01.12.2020 02:44 5,0 C 4,4 C 4,5 C 99 % 1013,0 hPa 0,0 l/m 0 min 2 min 0 W/m 25,7 km/h (4 Bft) 97,87 %
01.12.2020 02:46 5,1 C 4,4 C 4,5 C 99 % 1012,9 hPa 0,0 l/m 0 min 0 min 0 W/m 32,2 km/h (5 Bft) 97,87 %
01.12.2020 02:48 5,1 C 4,4 C 4,5 C 99 % 1012,9 hPa 0,0 l/m 0 min 0 min 0 W/m 29,0 km/h (5 Bft) 95,74 %
01.12.2020 02:50 5,1 C 4,4 C 4,5 C 99 % 1012,9 hPa 0,0 l/m 0 min 2 min 0 W/m 22,5 km/h (4 Bft) 95,74 %
01.12.2020 02:52 5,1 C 4,4 C 4,5 C 99 % 1013,0 hPa 0,0 l/m 0 min 0 min 0 W/m 35,4 km/h (5 Bft) 97,87 %
01.12.2020 02:54 5,1 C 4,4 C 4,5 C 99 % 1012,9 hPa 0,0 l/m 0 min 0 min 0 W/m 25,7 km/h (4 Bft) 95,65 %
01.12.2020 02:56 5,1 C 4,4 C 4,5 C 99 % 1012,9 hPa 0,0 l/m 0 min 0 min 0 W/m 25,7 km/h (4 Bft) 95,74 %
01.12.2020 02:58 5,1 C 4,4 C 4,5 C 99 % 1012,9 hPa 0,0 l/m 0 min 2 min 0 W/m 19,3 km/h (3 Bft) 97,87 %
01.12.2020 03:00 5,1 C 4,4 C 4,5 C 99 % 1012,9 hPa 0,0 l/m 0 min 2 min 0 W/m 22,5 km/h (4 Bft) 50,00 %
01.12.2020 03:02 5,1 C 4,4 C 4,5 C 99 % 1012,9 hPa 0,0 l/m 0 min 2 min 0 W/m 32,2 km/h (5 Bft) 97,78 %
01.12.2020 03:04 5,1 C 4,4 C 5,0 C 99 % 1012,9 hPa 0,0 l/m 0 min 2 min 0 W/m 25,7 km/h (4 Bft) 97,87 %
01.12.2020 03:06 5,2 C 4,4 C 5,0 C 99 % 1012,8 hPa 0,0 l/m 0 min 2 min 0 W/m 25,7 km/h (4 Bft) 97,83 %
01.12.2020 03:08 5,2 C 4,4 C 5,0 C 99 % 1012,8 hPa 0,0 l/m 0 min 2 min 0 W/m 32,2 km/h (5 Bft) 97,87 %
01.12.2020 03:10 5,2 C 4,4 C 5,0 C 99 % 1012,8 hPa 0,0 l/m 0 min 2 min 0 W/m 22,5 km/h (4 Bft) 100,00 %
01.12.2020 03:12 5,2 C 4,4 C 5,0 C 99 % 1012,8 hPa 0,0 l/m 0 min 2 min 0 W/m 22,5 km/h (4 Bft) 95,74 %
01.12.2020 03:14 5,2 C 4,4 C 5,0 C 99 % 1012,8 hPa 0,0 l/m 0 min 2 min 0 W/m 22,5 km/h (4 Bft) 95,74 %
01.12.2020 03:16 5,2 C 4,4 C 5,0 C 99 % 1012,7 hPa 0,0 l/m 0 min 2 min 0 W/m 19,3 km/h (3 Bft) 97,87 %
01.12.2020 03:18 5,2 C 4,4 C 5,0 C 99 % 1012,7 hPa 0,0 l/m 0 min 2 min 0 W/m 25,7 km/h (4 Bft) 97,87 %
01.12.2020 03:20 5,2 C 4,4 C 5,0 C 99 % 1012,6 hPa 0,0 l/m 0 min 2 min 0 W/m 22,5 km/h (4 Bft) 95,65 %
01.12.2020 03:22 5,3 C 4,4 C 5,0 C 99 % 1012,7 hPa 0,0 l/m 0 min 2 min 0 W/m 29,0 km/h (5 Bft) 97,87 %
01.12.2020 03:24 5,3 C 4,4 C 5,0 C 99 % 1012,7 hPa 0,0 l/m 0 min 2 min 0 W/m 16,1 km/h (3 Bft) 97,87 %
01.12.2020 03:26 5,3 C 4,4 C 5,0 C 99 % 1012,6 hPa 0,2 l/m 0 min 2 min 0 W/m 19,3 km/h (3 Bft) 95,74 %
01.12.2020 03:28 5,3 C 4,4 C 5,0 C 99 % 1012,6 hPa 0,0 l/m 0 min 2 min 0 W/m 19,3 km/h (3 Bft) 95,74 %
01.12.2020 03:30 5,3 C 4,4 C 5,0 C 99 % 1012,6 hPa 0,0 l/m 0 min 2 min 0 W/m 22,5 km/h (4 Bft) 97,83 %
01.12.2020 03:32 5,3 C 4,4 C 5,0 C 99 % 1012,5 hPa 0,0 l/m 0 min 2 min 0 W/m 12,9 km/h (3 Bft) 93,62 %
01.12.2020 03:34 5,3 C 4,4 C 5,0 C 99 % 1012,5 hPa 0,0 l/m 0 min 2 min 0 W/m 19,3 km/h (3 Bft) 97,87 %
01.12.2020 03:36 5,3 C 4,4 C 5,0 C 99 % 1012,6 hPa 0,0 l/m 0 min 2 min 0 W/m 12,9 km/h (3 Bft) 97,87 %
01.12.2020 03:38 5,3 C 4,4 C 5,0 C 99 % 1012,5 hPa 0,0 l/m 0 min 0 min 0 W/m 19,3 km/h (3 Bft) 97,87 %
01.12.2020 03:40 5,3 C 4,4 C 5,0 C 99 % 1012,5 hPa 0,0 l/m 0 min 0 min 0 W/m 6,4 km/h (2 Bft) 97,37 %
01.12.2020 03:42 5,4 C 4,4 C 5,0 C 99 % 1012,5 hPa 0,0 l/m 0 min 2 min 0 W/m 19,3 km/h (3 Bft) 95,74 %
01.12.2020 03:44 5,4 C 5,0 C 5,0 C 99 % 1012,5 hPa 0,0 l/m 0 min 2 min 0 W/m 12,9 km/h (3 Bft) 97,83 %
01.12.2020 03:46 5,4 C 5,0 C 5,0 C 99 % 1012,4 hPa 0,0 l/m 0 min 0 min 0 W/m 16,1 km/h (3 Bft) 97,87 %
01.12.2020 03:48 5,4 C 5,0 C 5,0 C 99 % 1012,4 hPa 0,0 l/m 0 min 0 min 0 W/m 12,9 km/h (3 Bft) 97,87 %
01.12.2020 03:50 5,4 C 5,0 C 5,0 C 99 % 1012,4 hPa 0,0 l/m 0 min 0 min 0 W/m 16,1 km/h (3 Bft) 97,87 %
01.12.2020 03:52 5,4 C 5,0 C 5,0 C 99 % 1012,4 hPa 0,0 l/m 0 min 0 min 0 W/m 16,1 km/h (3 Bft) 95,74 %
01.12.2020 03:54 5,4 C 5,0 C 5,0 C 99 % 1012,4 hPa 0,0 l/m 0 min 0 min 0 W/m 16,1 km/h (3 Bft) 97,92 %
01.12.2020 03:56 5,5 C 5,0 C 5,0 C 99 % 1012,4 hPa 0,0 l/m 0 min 0 min 0 W/m 12,9 km/h (3 Bft) 91,49 %
01.12.2020 03:58 5,5 C 5,0 C 5,0 C 99 % 1012,4 hPa 0,0 l/m 0 min 0 min 0 W/m 3,2 km/h (1 Bft) 95,74 %
01.12.2020 04:00 5,5 C 5,0 C 5,0 C 99 % 1012,4 hPa 0,0 l/m 0 min 0 min 0 W/m 6,4 km/h (2 Bft) 95,74 %
01.12.2020 04:02 5,5 C 5,0 C 5,0 C 99 % 1012,4 hPa 0,0 l/m 0 min 0 min 0 W/m 16,1 km/h (3 Bft) 100,00 %
01.12.2020 04:04 5,5 C 5,0 C 5,0 C 99 % 1012,4 hPa 0,0 l/m 0 min 0 min 0 W/m 12,9 km/h (3 Bft) 97,87 %
01.12.2020 04:06 5,5 C 5,0 C 5,0 C 99 % 1012,4 hPa 0,0 l/m 0 min 0 min 0 W/m 6,4 km/h (2 Bft) 97,83 %
01.12.2020 04:08 5,5 C 5,0 C 5,0 C 99 % 1012,4 hPa 0,0 l/m 0 min 0 min 0 W/m 16,1 km/h (3 Bft) 97,87 %
01.12.2020 04:10 5,5 C 5,0 C 5,0 C 99 % 1012,4 hPa 0,0 l/m 0 min 0 min 0 W/m 12,9 km/h (3 Bft) 97,37 %
01.12.2020 04:12 5,5 C 5,0 C 5,0 C 99 % 1012,4 hPa 0,0 l/m 0 min 0 min 0 W/m 3,2 km/h (1 Bft) 54,55 %
01.12.2020 04:14 5,6 C 5,0 C 5,0 C 99 % 1012,4 hPa 0,0 l/m 0 min 0 min 0 W/m 9,7 km/h (2 Bft) 97,87 %
01.12.2020 04:16 5,6 C 5,0 C 5,0 C 99 % 1012,4 hPa 0,0 l/m 0 min 0 min 0 W/m 16,1 km/h (3 Bft) 97,87 %
01.12.2020 04:18 5,6 C 5,0 C 5,0 C 99 % 1012,4 hPa 0,0 l/m 0 min 0 min 0 W/m 16,1 km/h (3 Bft) 97,87 %
01.12.2020 04:20 5,6 C 5,0 C 5,0 C 99 % 1012,4 hPa 0,0 l/m 0 min 0 min 0 W/m 12,9 km/h (3 Bft) 95,65 %
01.12.2020 04:22 5,6 C 5,0 C 5,0 C 99 % 1012,4 hPa 0,0 l/m 0 min 0 min 0 W/m 12,9 km/h (3 Bft) 97,87 %
01.12.2020 04:24 5,6 C 5,0 C 5,0 C 99 % 1012,4 hPa 0,0 l/m 0 min 2 min 0 W/m 16,1 km/h (3 Bft) 97,87 %
01.12.2020 04:26 5,7 C 5,0 C 5,0 C 99 % 1012,4 hPa 0,0 l/m 0 min 2 min 0 W/m 16,1 km/h (3 Bft) 97,87 %
01.12.2020 04:28 5,7 C 5,0 C 5,0 C 99 % 1012,4 hPa 0,0 l/m 0 min 2 min 0 W/m 16,1 km/h (3 Bft) 95,74 %
01.12.2020 04:30 5,7 C 5,0 C 5,0 C 99 % 1012,4 hPa 0,0 l/m 0 min 2 min 0 W/m 12,9 km/h (3 Bft) 97,87 %
01.12.2020 04:32 5,8 C 5,0 C 5,0 C 99 % 1012,5 hPa 0,2 l/m 0 min 2 min 0 W/m 12,9 km/h (3 Bft) 97,83 %
01.12.2020 04:34 5,8 C 5,0 C 5,0 C 99 % 1012,5 hPa 0,0 l/m 0 min 0 min 0 W/m 12,9 km/h (3 Bft) 97,87 %
01.12.2020 04:36 5,8 C 5,0 C 5,6 C 99 % 1012,6 hPa 0,0 l/m 0 min 0 min 0 W/m 29,0 km/h (5 Bft) 97,87 %
01.12.2020 04:38 5,8 C 5,0 C 5,6 C 99 % 1012,6 hPa 0,0 l/m 0 min 2 min 0 W/m 16,1 km/h (3 Bft) 97,87 %
01.12.2020 04:40 5,8 C 5,0 C 5,6 C 99 % 1012,6 hPa 0,0 l/m 0 min 2 min 0 W/m 16,1 km/h (3 Bft) 97,92 %
01.12.2020 04:42 5,8 C 5,0 C 5,6 C 99 % 1012,5 hPa 0,0 l/m 0 min 2 min 0 W/m 16,1 km/h (3 Bft) 95,74 %
01.12.2020 04:44 5,8 C 5,0 C 5,6 C 99 % 1012,5 hPa 0,0 l/m 0 min 2 min 0 W/m 16,1 km/h (3 Bft) 93,62 %
01.12.2020 04:46 5,8 C 5,0 C 5,6 C 99 % 1012,5 hPa 0,0 l/m 0 min 2 min 0 W/m 12,9 km/h (3 Bft) 97,87 %
01.12.2020 04:48 5,9 C 5,0 C 5,6 C 99 % 1012,5 hPa 0,0 l/m 0 min 2 min 0 W/m 6,4 km/h (2 Bft) 97,87 %
01.12.2020 04:50 5,9 C 5,0 C 5,6 C 99 % 1012,5 hPa 0,0 l/m 0 min 2 min 0 W/m 6,4 km/h (2 Bft) 97,83 %
01.12.2020 04:52 5,9 C 5,0 C 5,6 C 99 % 1012,5 hPa 0,0 l/m 0 min 2 min 0 W/m 6,4 km/h (2 Bft) 97,87 %
01.12.2020 04:54 5,9 C 5,0 C 5,6 C 99 % 1012,5 hPa 0,0 l/m 0 min 2 min 0 W/m 9,7 km/h (2 Bft) 93,62 %
01.12.2020 04:56 5,9 C 5,0 C 5,6 C 99 % 1012,5 hPa 0,0 l/m 0 min 2 min 0 W/m 12,9 km/h (3 Bft) 97,87 %
01.12.2020 04:58 5,9 C 5,0 C 5,6 C 99 % 1012,5 hPa 0,0 l/m 0 min 2 min 0 W/m 9,7 km/h (2 Bft) 95,74 %
01.12.2020 05:00 5,9 C 5,0 C 5,6 C 99 % 1012,5 hPa 0,0 l/m 0 min 2 min 0 W/m 9,7 km/h (2 Bft) 97,87 %
01.12.2020 05:02 5,9 C 5,0 C 5,6 C 99 % 1012,6 hPa 0,0 l/m 0 min 0 min 0 W/m 12,9 km/h (3 Bft) 97,83 %
01.12.2020 05:04 5,9 C 5,0 C 5,6 C 99 % 1012,6 hPa 0,0 l/m 0 min 0 min 0 W/m 16,1 km/h (3 Bft) 97,87 %
01.12.2020 05:06 5,9 C 5,0 C 5,6 C 99 % 1012,6 hPa 0,0 l/m 0 min 2 min 0 W/m 9,7 km/h (2 Bft) 97,87 %
01.12.2020 05:08 5,9 C 5,0 C 5,6 C 99 % 1012,6 hPa 0,2 l/m 0 min 2 min 0 W/m 12,9 km/h (3 Bft) 95,74 %
01.12.2020 05:10 5,9 C 5,0 C 5,6 C 99 % 1012,6 hPa 0,0 l/m 0 min 2 min 0 W/m 9,7 km/h (2 Bft) 95,74 %
01.12.2020 05:12 5,9 C 5,0 C 5,6 C 99 % 1012,6 hPa 0,2 l/m 0 min 2 min 0 W/m 3,2 km/h (1 Bft) 93,48 %
01.12.2020 05:14 6,0 C 5,0 C 5,6 C 99 % 1012,6 hPa 0,0 l/m 0 min 2 min 0 W/m 0,0 km/h (0 Bft) 95,74 %
01.12.2020 05:16 6,0 C 5,0 C 5,6 C 99 % 1012,6 hPa 0,0 l/m 0 min 2 min 0 W/m 0,0 km/h (0 Bft) 93,62 %
01.12.2020 05:18 6,0 C 5,0 C 5,6 C 99 % 1012,6 hPa 0,0 l/m 0 min 2 min 0 W/m 6,4 km/h (2 Bft) 93,62 %
01.12.2020 05:20 6,0 C 5,0 C 5,6 C 99 % 1012,6 hPa 0,0 l/m 0 min 2 min 0 W/m 0,0 km/h (0 Bft) 95,74 %
01.12.2020 05:22 6,0 C 5,0 C 5,6 C 99 % 1012,6 hPa 0,0 l/m 0 min 2 min 0 W/m 3,2 km/h (1 Bft) 96,30 %
01.12.2020 05:24 6,0 C 5,0 C 5,6 C 99 % 1012,6 hPa 0,0 l/m 0 min 0 min 0 W/m 0,0 km/h (0 Bft) 95,74 %
01.12.2020 05:26 6,0 C 5,0 C 5,6 C 99 % 1012,7 hPa 0,0 l/m 0 min 2 min 0 W/m 0,0 km/h (0 Bft) 95,74 %
01.12.2020 05:28 6,0 C 5,0 C 5,6 C 99 % 1012,7 hPa 0,0 l/m 0 min 2 min 0 W/m 6,4 km/h (2 Bft) 95,65 %
01.12.2020 05:30 6,0 C 5,6 C 5,6 C 99 % 1012,7 hPa 0,0 l/m 0 min 0 min 0 W/m 6,4 km/h (2 Bft) 95,74 %
01.12.2020 05:32 6,0 C 5,6 C 5,6 C 99 % 1012,6 hPa 0,0 l/m 0 min 0 min 0 W/m 0,0 km/h (0 Bft) 93,62 %
01.12.2020 05:34 6,0 C 5,6 C 5,6 C 99 % 1012,6 hPa 0,0 l/m 0 min 0 min 0 W/m 3,2 km/h (1 Bft) 97,87 %
01.12.2020 05:36 6,0 C 5,6 C 5,6 C 99 % 1012,7 hPa 0,0 l/m 0 min 0 min 0 W/m 0,0 km/h (0 Bft) 95,74 %
01.12.2020 05:38 6,0 C 5,6 C 5,6 C 99 % 1012,6 hPa 0,0 l/m 0 min 0 min 0 W/m 6,4 km/h (2 Bft) 94,74 %
01.12.2020 05:40 6,0 C 5,6 C 5,6 C 99 % 1012,6 hPa 0,0 l/m 0 min 0 min 0 W/m 6,4 km/h (2 Bft) 93,75 %
01.12.2020 05:42 6,0 C 5,6 C 5,6 C 99 % 1012,7 hPa 0,0 l/m 0 min 0 min 0 W/m 6,4 km/h (2 Bft) 93,62 %
01.12.2020 05:44 6,0 C 5,6 C 5,6 C 99 % 1012,7 hPa 0,0 l/m 0 min 0 min 0 W/m 6,4 km/h (2 Bft) 95,74 %
01.12.2020 05:46 6,0 C 5,6 C 5,6 C 99 % 1012,7 hPa 0,0 l/m 0 min 0 min 0 W/m 3,2 km/h (1 Bft) 95,74 %
01.12.2020 05:48 6,0 C 5,6 C 5,6 C 99 % 1012,7 hPa 0,0 l/m 0 min 0 min 0 W/m 3,2 km/h (1 Bft) 93,48 %
01.12.2020 05:50 6,0 C 5,6 C 5,6 C 99 % 1012,7 hPa 0,0 l/m 0 min 0 min 0 W/m 6,4 km/h (2 Bft) 95,74 %
01.12.2020 05:52 6,0 C 5,6 C 5,6 C 99 % 1012,7 hPa 0,0 l/m 0 min 0 min 0 W/m 6,4 km/h (2 Bft) 97,87 %
01.12.2020 05:54 6,0 C 5,6 C 5,6 C 99 % 1012,8 hPa 0,0 l/m 0 min 0 min 0 W/m 3,2 km/h (1 Bft) 97,87 %
01.12.2020 05:56 6,0 C 5,6 C 5,6 C 99 % 1012,7 hPa 0,0 l/m 0 min 0 min 0 W/m 6,4 km/h (2 Bft) 97,87 %
01.12.2020 05:58 6,0 C 5,0 C 5,6 C 99 % 1012,8 hPa 0,0 l/m 0 min 0 min 0 W/m 3,2 km/h (1 Bft) 97,87 %
01.12.2020 06:00 6,0 C 5,0 C 5,6 C 99 % 1012,8 hPa 0,0 l/m 0 min 0 min 0 W/m 3,2 km/h (1 Bft) 97,83 %
01.12.2020 06:02 6,0 C 5,0 C 5,6 C 99 % 1012,8 hPa 0,0 l/m 0 min 0 min 0 W/m 3,2 km/h (1 Bft) 95,74 %
01.12.2020 06:04 6,0 C 5,0 C 5,6 C 99 % 1012,8 hPa 0,0 l/m 0 min 0 min 0 W/m 6,4 km/h (2 Bft) 95,74 %
01.12.2020 06:08 6,0 C 5,0 C 5,6 C 99 % 1012,8 hPa 0,0 l/m 0 min 0 min 0 W/m 3,2 km/h (1 Bft) 93,62 %
01.12.2020 06:10 6,0 C 5,0 C 5,6 C 99 % 1012,8 hPa 0,0 l/m 0 min 0 min 0 W/m 0,0 km/h (0 Bft) 93,48 %
01.12.2020 06:12 6,0 C 5,0 C 5,6 C 99 % 1012,8 hPa 0,0 l/m 0 min 0 min 0 W/m 3,2 km/h (1 Bft) 93,62 %
01.12.2020 06:14 5,9 C 5,0 C 5,6 C 99 % 1012,8 hPa 0,0 l/m 0 min 0 min 0 W/m 0,0 km/h (0 Bft) 95,74 %
01.12.2020 06:16 5,9 C 5,0 C 5,6 C 99 % 1012,9 hPa 0,0 l/m 0 min 0 min 0 W/m 0,0 km/h (0 Bft) 95,74 %
01.12.2020 06:18 5,9 C 5,0 C 5,6 C 99 % 1012,8 hPa 0,0 l/m 0 min 0 min 0 W/m 3,2 km/h (1 Bft) 97,87 %
01.12.2020 06:20 5,9 C 5,0 C 5,6 C 99 % 1012,8 hPa 0,0 l/m 0 min 0 min 0 W/m 3,2 km/h (1 Bft) 97,87 %
01.12.2020 06:22 5,9 C 5,0 C 5,6 C 99 % 1012,8 hPa 0,0 l/m 0 min 0 min 0 W/m 3,2 km/h (1 Bft) 97,83 %
01.12.2020 06:24 5,9 C 5,0 C 5,6 C 99 % 1012,9 hPa 0,0 l/m 0 min 0 min 0 W/m 6,4 km/h (2 Bft) 97,87 %
01.12.2020 06:26 5,9 C 5,0 C 5,6 C 99 % 1012,8 hPa 0,0 l/m 0 min 0 min 0 W/m 6,4 km/h (2 Bft) 97,87 %
01.12.2020 06:28 5,9 C 5,0 C 5,6 C 99 % 1012,9 hPa 0,0 l/m 0 min 0 min 0 W/m 0,0 km/h (0 Bft) 93,62 %
01.12.2020 06:30 5,9 C 5,0 C 5,6 C 99 % 1012,9 hPa 0,2 l/m 0 min 0 min 0 W/m 0,0 km/h (0 Bft) 97,87 %
01.12.2020 06:32 5,9 C 5,0 C 5,6 C 99 % 1012,9 hPa 0,0 l/m 0 min 0 min 0 W/m 0,0 km/h (0 Bft) 97,87 %
01.12.2020 06:34 5,9 C 5,0 C 5,6 C 99 % 1012,9 hPa 0,0 l/m 0 min 0 min 0 W/m 0,0 km/h (0 Bft) 97,83 %
01.12.2020 06:36 5,9 C 5,0 C 5,6 C 99 % 1012,9 hPa 0,0 l/m 0 min 0 min 0 W/m 6,4 km/h (2 Bft) 97,87 %
01.12.2020 06:38 5,9 C 5,0 C 5,6 C 99 % 1012,9 hPa 0,0 l/m 0 min 0 min 0 W/m 3,2 km/h (1 Bft) 100,00 %
01.12.2020 06:40 5,9 C 5,0 C 5,6 C 99 % 1012,9 hPa 0,0 l/m 0 min 0 min 0 W/m 6,4 km/h (2 Bft) 97,92 %
01.12.2020 06:42 5,9 C 5,0 C 5,6 C 99 % 1012,9 hPa 0,0 l/m 0 min 0 min 0 W/m 3,2 km/h (1 Bft) 50,00 %
01.12.2020 06:44 5,9 C 5,0 C 5,6 C 99 % 1012,9 hPa 0,0 l/m 0 min 0 min 0 W/m 3,2 km/h (1 Bft) 100,00 %
01.12.2020 06:46 5,9 C 5,0 C 5,6 C 99 % 1012,9 hPa 0,0 l/m 0 min 0 min 0 W/m 0,0 km/h (0 Bft) 95,74 %
01.12.2020 06:48 5,9 C 5,0 C 5,6 C 99 % 1012,9 hPa 0,0 l/m 0 min 0 min 0 W/m 0,0 km/h (0 Bft) 97,83 %
01.12.2020 06:50 5,9 C 5,0 C 5,6 C 99 % 1012,9 hPa 0,0 l/m 0 min 0 min 0 W/m 6,4 km/h (2 Bft) 97,87 %
01.12.2020 06:52 5,9 C 5,0 C 5,6 C 99 % 1012,9 hPa 0,0 l/m 0 min 0 min 0 W/m 9,7 km/h (2 Bft) 100,00 %
01.12.2020 06:54 5,9 C 5,0 C 5,6 C 99 % 1013,0 hPa 0,0 l/m 0 min 0 min 0 W/m 9,7 km/h (2 Bft) 100,00 %
01.12.2020 06:56 5,9 C 5,0 C 5,6 C 99 % 1013,0 hPa 0,0 l/m 0 min 0 min 0 W/m 6,4 km/h (2 Bft) 100,00 %
01.12.2020 06:58 5,9 C 5,0 C 5,6 C 99 % 1013,0 hPa 0,0 l/m 0 min 0 min 0 W/m 0,0 km/h (0 Bft) 100,00 %
01.12.2020 07:00 5,9 C 5,0 C 5,6 C 99 % 1013,0 hPa 0,0 l/m 0 min 0 min 0 W/m 0,0 km/h (0 Bft) 97,83 %
01.12.2020 07:02 5,9 C 5,0 C 5,6 C 99 % 1012,9 hPa 0,0 l/m 0 min 0 min 0 W/m 3,2 km/h (1 Bft) 95,74 %
01.12.2020 07:04 5,9 C 5,0 C 5,6 C 99 % 1013,0 hPa 0,0 l/m 0 min 0 min 0 W/m 6,4 km/h (2 Bft) 100,00 %
01.12.2020 07:06 5,9 C 5,0 C 5,6 C 99 % 1013,0 hPa 0,0 l/m 0 min 0 min 0 W/m 9,7 km/h (2 Bft) 100,00 %
01.12.2020 07:08 5,9 C 5,0 C 5,6 C 99 % 1013,0 hPa 0,0 l/m 0 min 0 min 0 W/m 12,9 km/h (3 Bft) 100,00 %
01.12.2020 07:10 5,9 C 5,0 C 5,6 C 99 % 1013,0 hPa 0,0 l/m 0 min 0 min 0 W/m 9,7 km/h (2 Bft) 100,00 %
01.12.2020 07:12 5,9 C 5,0 C 5,6 C 99 % 1013,0 hPa 0,0 l/m 0 min 0 min 0 W/m 0,0 km/h (0 Bft) 100,00 %
01.12.2020 07:14 5,9 C 5,0 C 5,6 C 99 % 1013,0 hPa 0,0 l/m 0 min 0 min 0 W/m 0,0 km/h (0 Bft) 100,00 %
01.12.2020 07:16 5,9 C 5,0 C 5,6 C 99 % 1013,1 hPa 0,0 l/m 0 min 0 min 0 W/m 6,4 km/h (2 Bft) 97,87 %
01.12.2020 07:18 5,9 C 5,0 C 5,6 C 99 % 1013,1 hPa 0,0 l/m 0 min 0 min 0 W/m 0,0 km/h (0 Bft) 100,00 %
01.12.2020 07:20 5,9 C 5,0 C 5,6 C 99 % 1013,1 hPa 0,0 l/m 0 min 0 min 0 W/m 3,2 km/h (1 Bft) 100,00 %
01.12.2020 07:22 5,9 C 5,0 C 5,6 C 99 % 1013,1 hPa 0,0 l/m 0 min 0 min 0 W/m 6,4 km/h (2 Bft) 97,87 %
01.12.2020 07:24 5,9 C 5,0 C 5,6 C 99 % 1013,1 hPa 0,0 l/m 0 min 0 min 0 W/m 6,4 km/h (2 Bft) 97,83 %
01.12.2020 07:26 5,8 C 5,0 C 5,6 C 99 % 1013,1 hPa 0,0 l/m 0 min 0 min 0 W/m 6,4 km/h (2 Bft) 100,00 %
01.12.2020 07:28 5,8 C 5,0 C 5,6 C 99 % 1013,2 hPa 0,0 l/m 0 min 0 min 0 W/m 3,2 km/h (1 Bft) 100,00 %
01.12.2020 07:30 5,8 C 5,0 C 5,6 C 99 % 1013,1 hPa 0,0 l/m 0 min 0 min 0 W/m 3,2 km/h (1 Bft) 97,87 %
01.12.2020 07:32 5,8 C 5,0 C 5,6 C 99 % 1013,2 hPa 0,0 l/m 0 min 0 min 0 W/m 12,9 km/h (3 Bft) 100,00 %
01.12.2020 07:34 5,8 C 5,0 C 5,6 C 99 % 1013,2 hPa 0,0 l/m 0 min 0 min 0 W/m 9,7 km/h (2 Bft) 97,87 %
01.12.2020 07:36 5,8 C 5,0 C 5,6 C 99 % 1013,2 hPa 0,0 l/m 0 min 0 min 0 W/m 0,0 km/h (0 Bft) 97,83 %
01.12.2020 07:38 5,8 C 5,0 C 5,6 C 99 % 1013,2 hPa 0,0 l/m 0 min 0 min 0 W/m 12,9 km/h (3 Bft) 100,00 %
01.12.2020 07:40 5,9 C 5,0 C 5,6 C 99 % 1013,2 hPa 0,0 l/m 0 min 0 min 0 W/m 12,9 km/h (3 Bft) 100,00 %
01.12.2020 07:42 5,9 C 5,0 C 5,6 C 99 % 1013,2 hPa 0,0 l/m 0 min 0 min 0 W/m 9,7 km/h (2 Bft) 97,87 %
01.12.2020 07:44 5,9 C 5,0 C 5,6 C 99 % 1013,2 hPa 0,0 l/m 0 min 0 min 0 W/m 0,0 km/h (0 Bft) 97,87 %
01.12.2020 07:46 5,9 C 5,0 C 5,6 C 99 % 1013,2 hPa 0,0 l/m 0 min 0 min 0 W/m 12,9 km/h (3 Bft) 100,00 %
01.12.2020 07:48 5,9 C 5,0 C 5,6 C 99 % 1013,2 hPa 0,0 l/m 0 min 0 min 0 W/m 12,9 km/h (3 Bft) 97,83 %
01.12.2020 07:50 5,9 C 5,0 C 5,6 C 99 % 1013,3 hPa 0,0 l/m 0 min 0 min 0 W/m 9,7 km/h (2 Bft) 97,87 %
01.12.2020 07:52 5,9 C 5,0 C 5,6 C 99 % 1013,3 hPa 0,0 l/m 0 min 0 min 0 W/m 9,7 km/h (2 Bft) 97,87 %
01.12.2020 07:54 5,9 C 5,6 C 5,6 C 99 % 1013,4 hPa 0,0 l/m 0 min 0 min 0 W/m 16,1 km/h (3 Bft) 95,74 %
01.12.2020 07:56 5,9 C 5,6 C 5,6 C 100 % 1013,3 hPa 0,0 l/m 0 min 0 min 0 W/m 6,4 km/h (2 Bft) 95,74 %
01.12.2020 07:58 5,9 C 5,6 C 5,6 C 100 % 1013,3 hPa 0,0 l/m 0 min 0 min 0 W/m 6,4 km/h (2 Bft) 97,87 %
01.12.2020 08:00 5,9 C 5,6 C 5,6 C 100 % 1013,4 hPa 0,0 l/m 0 min 0 min 0 W/m 6,4 km/h (2 Bft) 95,65 %
01.12.2020 08:02 5,9 C 5,6 C 5,6 C 100 % 1013,3 hPa 0,0 l/m 0 min 0 min 0 W/m 6,4 km/h (2 Bft) 96,23 %
01.12.2020 08:04 5,9 C 5,6 C 5,6 C 100 % 1013,4 hPa 0,0 l/m 0 min 0 min 0 W/m 6,4 km/h (2 Bft) 95,74 %
01.12.2020 08:06 6,0 C 5,6 C 5,6 C 100 % 1013,3 hPa 0,0 l/m 0 min 0 min 0 W/m 3,2 km/h (1 Bft) 95,74 %
01.12.2020 08:08 6,0 C 5,6 C 5,6 C 100 % 1013,4 hPa 0,0 l/m 0 min 0 min 0 W/m 3,2 km/h (1 Bft) 97,87 %
01.12.2020 08:10 6,0 C 5,6 C 5,6 C 100 % 1013,4 hPa 0,0 l/m 0 min 0 min 0 W/m 3,2 km/h (1 Bft) 97,83 %
01.12.2020 08:12 6,0 C 5,6 C 5,6 C 100 % 1013,4 hPa 0,0 l/m 0 min 0 min 0 W/m 9,7 km/h (2 Bft) 97,87 %
01.12.2020 08:14 6,0 C 5,6 C 5,6 C 100 % 1013,4 hPa 0,0 l/m 0 min 0 min 0 W/m 6,4 km/h (2 Bft) 97,87 %
01.12.2020 08:16 6,0 C 5,0 C 5,6 C 100 % 1013,4 hPa 0,0 l/m 0 min 0 min 0 W/m 9,7 km/h (2 Bft) 97,87 %
01.12.2020 08:18 6,0 C 5,0 C 5,6 C 100 % 1013,4 hPa 0,0 l/m 0 min 0 min 0 W/m 6,4 km/h (2 Bft) 95,74 %
01.12.2020 08:20 6,0 C 5,6 C 5,6 C 100 % 1013,5 hPa 0,0 l/m 0 min 0 min 0 W/m 3,2 km/h (1 Bft) 97,87 %
01.12.2020 08:22 6,0 C 5,0 C 5,6 C 100 % 1013,5 hPa 0,0 l/m 0 min 0 min 0 W/m 6,4 km/h (2 Bft) 97,83 %
01.12.2020 08:24 6,0 C 5,6 C 5,6 C 100 % 1013,4 hPa 0,0 l/m 0 min 0 min 0 W/m 3,2 km/h (1 Bft) 97,87 %
01.12.2020 08:26 6,0 C 5,6 C 5,6 C 100 % 1013,5 hPa 0,0 l/m 0 min 0 min 0 W/m 0,0 km/h (0 Bft) 95,74 %
01.12.2020 08:28 6,0 C 5,6 C 5,6 C 100 % 1013,5 hPa 0,0 l/m 0 min 0 min 0 W/m 0,0 km/h (0 Bft) 97,87 %
01.12.2020 08:30 6,0 C 5,6 C 5,6 C 100 % 1013,5 hPa 0,0 l/m 0 min 0 min 0 W/m 0,0 km/h (0 Bft) 100,00 %
01.12.2020 08:32 6,0 C 5,6 C 5,6 C 100 % 1013,5 hPa 0,0 l/m 0 min 0 min 0 W/m 0,0 km/h (0 Bft) 97,92 %
01.12.2020 08:34 6,0 C 5,6 C 5,6 C 100 % 1013,6 hPa 0,0 l/m 0 min 0 min 0 W/m 6,4 km/h (2 Bft) 100,00 %
01.12.2020 08:36 6,0 C 5,6 C 5,6 C 100 % 1013,6 hPa 0,0 l/m 0 min 0 min 2 W/m 0,0 km/h (0 Bft) 97,87 %
01.12.2020 08:38 6,0 C 5,6 C 5,6 C 100 % 1013,6 hPa 0,0 l/m 0 min 0 min 5 W/m 9,7 km/h (2 Bft) 100,00 %
01.12.2020 08:40 6,0 C 5,6 C 5,6 C 100 % 1013,6 hPa 0,0 l/m 0 min 0 min 5 W/m 9,7 km/h (2 Bft) 100,00 %
01.12.2020 08:42 6,0 C 5,6 C 5,6 C 100 % 1013,7 hPa 0,0 l/m 0 min 0 min 5 W/m 3,2 km/h (1 Bft) 100,00 %
01.12.2020 08:44 6,0 C 5,6 C 5,6 C 100 % 1013,7 hPa 0,0 l/m 0 min 0 min 5 W/m 0,0 km/h (0 Bft) 100,00 %
01.12.2020 08:46 6,0 C 5,6 C 5,6 C 100 % 1013,7 hPa 0,0 l/m 0 min 0 min 5 W/m 0,0 km/h (0 Bft) 100,00 %
01.12.2020 08:48 6,0 C 5,6 C 5,6 C 100 % 1013,7 hPa 0,0 l/m 0 min 0 min 7 W/m 0,0 km/h (0 Bft) 97,87 %
01.12.2020 08:50 6,0 C 5,6 C 5,6 C 100 % 1013,8 hPa 0,0 l/m 0 min 0 min 7 W/m 9,7 km/h (2 Bft) 95,74 %
01.12.2020 08:52 6,0 C 5,6 C 5,6 C 100 % 1013,8 hPa 0,0 l/m 0 min 0 min 8 W/m 6,4 km/h (2 Bft) 95,74 %
01.12.2020 08:54 6,0 C 5,6 C 5,6 C 100 % 1013,8 hPa 0,0 l/m 0 min 0 min 9 W/m 9,7 km/h (2 Bft) 95,74 %
01.12.2020 08:56 6,0 C 5,6 C 5,6 C 100 % 1013,9 hPa 0,0 l/m 0 min 0 min 12 W/m 9,7 km/h (2 Bft) 97,83 %
01.12.2020 08:58 6,0 C 5,6 C 5,6 C 100 % 1013,9 hPa 0,0 l/m 0 min 0 min 13 W/m 3,2 km/h (1 Bft) 97,87 %
01.12.2020 09:00 6,0 C 5,6 C 5,6 C 100 % 1013,9 hPa 0,0 l/m 0 min 0 min 18 W/m 3,2 km/h (1 Bft) 97,87 %
01.12.2020 09:02 6,0 C 5,6 C 5,6 C 100 % 1013,9 hPa 0,0 l/m 0 min 0 min 17 W/m 0,0 km/h (0 Bft) 95,74 %
01.12.2020 09:04 6,0 C 5,6 C 5,6 C 100 % 1014,0 hPa 0,0 l/m 0 min 0 min 14 W/m 6,4 km/h (2 Bft) 97,87 %
01.12.2020 09:06 6,0 C 5,6 C 5,6 C 100 % 1014,0 hPa 0,0 l/m 0 min 0 min 15 W/m 6,4 km/h (2 Bft) 97,87 %
01.12.2020 09:08 6,0 C 5,6 C 5,6 C 100 % 1014,0 hPa 0,0 l/m 0 min 0 min 16 W/m 9,7 km/h (2 Bft) 97,83 %
01.12.2020 09:10 6,0 C 5,6 C 5,6 C 100 % 1014,0 hPa 0,0 l/m 0 min 0 min 18 W/m 3,2 km/h (1 Bft) 97,87 %
01.12.2020 09:12 6,1 C 5,6 C 5,6 C 100 % 1014,0 hPa 0,0 l/m 0 min 0 min 19 W/m 0,0 km/h (0 Bft) 54,35 %
01.12.2020 09:14 6,1 C 5,6 C 5,6 C 100 % 1014,0 hPa 0,0 l/m 0 min 0 min 20 W/m 0,0 km/h (0 Bft) 97,87 %
01.12.2020 09:16 6,1 C 5,6 C 5,6 C 100 % 1014,0 hPa 0,0 l/m 0 min 0 min 22 W/m 0,0 km/h (0 Bft) 97,87 %
01.12.2020 09:18 6,1 C 5,6 C 6,1 C 100 % 1014,1 hPa 0,0 l/m 0 min 0 min 25 W/m 0,0 km/h (0 Bft) 97,87 %
01.12.2020 09:20 6,1 C 5,6 C 6,1 C 100 % 1014,1 hPa 0,0 l/m 0 min 0 min 28 W/m 6,4 km/h (2 Bft) 95,65 %
01.12.2020 09:22 6,1 C 5,6 C 6,1 C 100 % 1014,1 hPa 0,0 l/m 0 min 0 min 30 W/m 9,7 km/h (2 Bft) 95,74 %
01.12.2020 09:24 6,1 C 5,6 C 6,1 C 100 % 1014,1 hPa 0,0 l/m 0 min 0 min 30 W/m 0,0 km/h (0 Bft) 97,87 %
01.12.2020 09:26 6,1 C 5,6 C 6,1 C 100 % 1014,1 hPa 0,0 l/m 0 min 0 min 39 W/m 0,0 km/h (0 Bft) 97,87 %
01.12.2020 09:28 6,1 C 5,6 C 6,1 C 100 % 1014,2 hPa 0,0 l/m 0 min 0 min 46 W/m 0,0 km/h (0 Bft) 95,74 %
01.12.2020 09:30 6,1 C 5,6 C 6,1 C 100 % 1014,2 hPa 0,0 l/m 0 min 0 min 35 W/m 0,0 km/h (0 Bft) 97,87 %
01.12.2020 09:32 6,1 C 5,6 C 6,1 C 100 % 1014,2 hPa 0,0 l/m 0 min 0 min 27 W/m 0,0 km/h (0 Bft) 95,65 %
01.12.2020 09:34 6,1 C 5,6 C 6,1 C 100 % 1014,2 hPa 0,0 l/m 0 min 0 min 18 W/m 0,0 km/h (0 Bft) 97,87 %
01.12.2020 09:36 6,2 C 5,6 C 6,1 C 100 % 1014,2 hPa 0,0 l/m 0 min 0 min 14 W/m 3,2 km/h (1 Bft) 97,87 %
01.12.2020 09:38 6,2 C 5,6 C 6,1 C 100 % 1014,2 hPa 0,0 l/m 0 min 0 min 16 W/m 0,0 km/h (0 Bft) 100,00 %
01.12.2020 09:40 6,2 C 5,6 C 6,1 C 100 % 1014,2 hPa 0,0 l/m 0 min 0 min 22 W/m 0,0 km/h (0 Bft) 97,87 %
01.12.2020 09:42 6,2 C 5,6 C 6,1 C 100 % 1014,2 hPa 0,0 l/m 0 min 0 min 31 W/m 0,0 km/h (0 Bft) 100,00 %
01.12.2020 09:44 6,2 C 5,6 C 6,1 C 100 % 1014,2 hPa 0,0 l/m 0 min 0 min 33 W/m 3,2 km/h (1 Bft) 100,00 %
01.12.2020 09:46 6,2 C 5,6 C 6,1 C 100 % 1014,2 hPa 0,0 l/m 0 min 0 min 34 W/m 0,0 km/h (0 Bft) 100,00 %
01.12.2020 09:48 6,3 C 5,6 C 6,1 C 100 % 1014,2 hPa 0,0 l/m 0 min 0 min 41 W/m 0,0 km/h (0 Bft) 100,00 %
01.12.2020 09:50 6,3 C 5,6 C 6,1 C 100 % 1014,3 hPa 0,0 l/m 0 min 0 min 49 W/m 0,0 km/h (0 Bft) 97,87 %
01.12.2020 09:52 6,3 C 5,6 C 6,1 C 100 % 1014,3 hPa 0,0 l/m 0 min 0 min 53 W/m 6,4 km/h (2 Bft) 100,00 %
01.12.2020 09:54 6,3 C 6,1 C 6,1 C 100 % 1014,3 hPa 0,0 l/m 0 min 0 min 54 W/m 3,2 km/h (1 Bft) 100,00 %
01.12.2020 09:56 6,3 C 6,1 C 6,1 C 100 % 1014,3 hPa 0,0 l/m 0 min 0 min 54 W/m 3,2 km/h (1 Bft) 100,00 %
01.12.2020 09:58 6,3 C 6,1 C 6,1 C 100 % 1014,3 hPa 0,0 l/m 0 min 0 min 56 W/m 3,2 km/h (1 Bft) 100,00 %
01.12.2020 10:00 6,4 C 6,1 C 6,1 C 100 % 1014,3 hPa 0,0 l/m 0 min 0 min 56 W/m 0,0 km/h (0 Bft) 100,00 %
01.12.2020 10:02 6,4 C 6,1 C 6,1 C 100 % 1014,3 hPa 0,0 l/m 0 min 0 min 56 W/m 0,0 km/h (0 Bft) 97,87 %
01.12.2020 10:04 6,4 C 6,1 C 6,1 C 100 % 1014,3 hPa 0,0 l/m 0 min 0 min 60 W/m 0,0 km/h (0 Bft) 100,00 %
01.12.2020 10:06 6,4 C 6,1 C 6,1 C 100 % 1014,3 hPa 0,0 l/m 0 min 0 min 59 W/m 0,0 km/h (0 Bft) 100,00 %
01.12.2020 10:08 6,4 C 6,1 C 6,7 C 100 % 1014,3 hPa 0,0 l/m 0 min 0 min 61 W/m 0,0 km/h (0 Bft) 100,00 %
01.12.2020 10:10 6,4 C 6,1 C 6,7 C 100 % 1014,3 hPa 0,0 l/m 0 min 0 min 67 W/m 3,2 km/h (1 Bft) 97,87 %
01.12.2020 10:12 6,4 C 6,1 C 6,7 C 100 % 1014,4 hPa 0,0 l/m 0 min 0 min 49 W/m 6,4 km/h (2 Bft) 100,00 %
01.12.2020 10:14 6,5 C 6,1 C 6,7 C 100 % 1014,4 hPa 0,0 l/m 0 min 0 min 36 W/m 6,4 km/h (2 Bft) 100,00 %
01.12.2020 10:16 6,5 C 6,1 C 6,1 C 100 % 1014,4 hPa 0,0 l/m 0 min 0 min 33 W/m 0,0 km/h (0 Bft) 100,00 %
01.12.2020 10:18 6,5 C 6,1 C 6,1 C 100 % 1014,4 hPa 0,0 l/m 0 min 0 min 39 W/m 6,4 km/h (2 Bft) 100,00 %
01.12.2020 10:20 6,5 C 6,1 C 6,7 C 100 % 1014,5 hPa 0,0 l/m 0 min 0 min 59 W/m 6,4 km/h (2 Bft) 97,87 %
01.12.2020 10:22 6,5 C 6,1 C 6,7 C 100 % 1014,4 hPa 0,0 l/m 0 min 0 min 91 W/m 9,7 km/h (2 Bft) 97,87 %
01.12.2020 10:24 6,5 C 6,1 C 6,7 C 100 % 1014,5 hPa 0,0 l/m 0 min 0 min 93 W/m 6,4 km/h (2 Bft) 97,87 %
01.12.2020 10:26 6,6 C 6,1 C 6,7 C 100 % 1014,5 hPa 0,0 l/m 0 min 0 min 89 W/m 6,4 km/h (2 Bft) 95,74 %
01.12.2020 10:28 6,6 C 6,7 C 6,7 C 100 % 1014,5 hPa 0,0 l/m 0 min 0 min 92 W/m 6,4 km/h (2 Bft) 100,00 %
01.12.2020 10:30 6,6 C 6,7 C 6,7 C 100 % 1014,5 hPa 0,0 l/m 0 min 0 min 89 W/m 6,4 km/h (2 Bft) 97,83 %
01.12.2020 10:32 6,6 C 6,7 C 6,7 C 100 % 1014,5 hPa 0,0 l/m 0 min 0 min 96 W/m 6,4 km/h (2 Bft) 95,92 %
01.12.2020 10:34 6,7 C 6,7 C 6,7 C 100 % 1014,6 hPa 0,0 l/m 0 min 0 min 77 W/m 0,0 km/h (0 Bft) 97,87 %
01.12.2020 10:36 6,7 C 6,1 C 6,7 C 100 % 1014,6 hPa 0,0 l/m 0 min 0 min 44 W/m 6,4 km/h (2 Bft) 97,87 %
01.12.2020 10:38 6,7 C 6,1 C 6,7 C 100 % 1014,6 hPa 0,0 l/m 0 min 0 min 28 W/m 3,2 km/h (1 Bft) 97,87 %
01.12.2020 10:40 6,8 C 6,1 C 6,7 C 100 % 1014,5 hPa 0,0 l/m 0 min 0 min 24 W/m 9,7 km/h (2 Bft) 93,48 %
01.12.2020 10:42 6,8 C 6,1 C 6,7 C 100 % 1014,6 hPa 0,0 l/m 0 min 0 min 22 W/m 12,9 km/h (3 Bft) 97,87 %
01.12.2020 10:44 6,8 C 6,1 C 6,7 C 100 % 1014,6 hPa 0,0 l/m 0 min 0 min 22 W/m 9,7 km/h (2 Bft) 97,87 %
01.12.2020 10:46 6,8 C 6,1 C 6,7 C 100 % 1014,6 hPa 0,0 l/m 0 min 0 min 25 W/m 6,4 km/h (2 Bft) 97,87 %
01.12.2020 10:48 6,8 C 6,1 C 6,7 C 100 % 1014,6 hPa 0,0 l/m 0 min 0 min 33 W/m 3,2 km/h (1 Bft) 97,87 %
01.12.2020 10:50 6,8 C 6,1 C 6,7 C 100 % 1014,6 hPa 0,0 l/m 0 min 0 min 38 W/m 3,2 km/h (1 Bft) 97,87 %
01.12.2020 10:52 6,8 C 6,1 C 6,7 C 100 % 1014,6 hPa 0,0 l/m 0 min 0 min 40 W/m 3,2 km/h (1 Bft) 97,83 %
01.12.2020 10:54 6,8 C 6,1 C 6,7 C 100 % 1014,6 hPa 0,0 l/m 0 min 2 min 44 W/m 3,2 km/h (1 Bft) 97,87 %
01.12.2020 10:56 6,8 C 6,1 C 6,7 C 100 % 1014,6 hPa 0,0 l/m 0 min 2 min 49 W/m 6,4 km/h (2 Bft) 93,62 %
01.12.2020 10:58 6,8 C 6,1 C 6,7 C 100 % 1014,6 hPa 0,0 l/m 0 min 2 min 52 W/m 3,2 km/h (1 Bft) 97,87 %
01.12.2020 11:00 6,8 C 6,1 C 6,7 C 100 % 1014,6 hPa 0,0 l/m 0 min 2 min 57 W/m 0,0 km/h (0 Bft) 97,87 %
01.12.2020 11:02 6,9 C 6,1 C 6,7 C 100 % 1014,6 hPa 0,0 l/m 0 min 2 min 61 W/m 0,0 km/h (0 Bft) 95,74 %
01.12.2020 11:04 6,9 C 6,1 C 6,7 C 100 % 1014,6 hPa 0,0 l/m 0 min 0 min 52 W/m 3,2 km/h (1 Bft) 97,83 %
01.12.2020 11:06 6,9 C 6,1 C 6,7 C 100 % 1014,6 hPa 0,0 l/m 0 min 0 min 47 W/m 9,7 km/h (2 Bft) 97,87 %
01.12.2020 11:08 6,9 C 6,1 C 6,7 C 100 % 1014,7 hPa 0,0 l/m 0 min 0 min 41 W/m 12,9 km/h (3 Bft) 97,87 %
01.12.2020 11:10 6,9 C 6,1 C 6,7 C 100 % 1014,6 hPa 0,2 l/m 0 min 0 min 39 W/m 9,7 km/h (2 Bft) 100,00 %
01.12.2020 11:12 6,9 C 6,1 C 6,7 C 100 % 1014,7 hPa 0,0 l/m 0 min 0 min 36 W/m 9,7 km/h (2 Bft) 100,00 %
01.12.2020 11:14 6,9 C 6,1 C 6,7 C 100 % 1014,7 hPa 0,0 l/m 0 min 0 min 40 W/m 9,7 km/h (2 Bft) 100,00 %
01.12.2020 11:16 7,0 C 6,1 C 6,7 C 100 % 1014,7 hPa 0,0 l/m 0 min 0 min 42 W/m 0,0 km/h (0 Bft) 100,00 %
01.12.2020 11:18 6,9 C 6,1 C 6,7 C 100 % 1014,7 hPa 0,0 l/m 0 min 0 min 39 W/m 6,4 km/h (2 Bft) 100,00 %
01.12.2020 11:20 7,0 C 6,1 C 6,7 C 100 % 1014,7 hPa 0,0 l/m 0 min 2 min 35 W/m 6,4 km/h (2 Bft) 97,87 %
01.12.2020 11:22 7,0 C 6,1 C 6,7 C 100 % 1014,6 hPa 0,0 l/m 0 min 0 min 34 W/m 6,4 km/h (2 Bft) 100,00 %
01.12.2020 11:24 7,0 C 6,1 C 6,7 C 100 % 1014,6 hPa 0,0 l/m 0 min 2 min 32 W/m 6,4 km/h (2 Bft) 100,00 %
01.12.2020 11:26 7,0 C 6,1 C 6,7 C 100 % 1014,7 hPa 0,2 l/m 0 min 2 min 33 W/m 3,2 km/h (1 Bft) 100,00 %
01.12.2020 11:28 7,0 C 6,7 C 6,7 C 100 % 1014,6 hPa 0,0 l/m 0 min 2 min 35 W/m 3,2 km/h (1 Bft) 100,00 %
01.12.2020 11:30 7,0 C 6,1 C 6,7 C 100 % 1014,6 hPa 0,0 l/m 0 min 2 min 39 W/m 3,2 km/h (1 Bft) 97,87 %
01.12.2020 11:32 7,0 C 6,1 C 6,7 C 100 % 1014,6 hPa 0,2 l/m 0 min 2 min 35 W/m 9,7 km/h (2 Bft) 97,92 %
01.12.2020 11:34 7,0 C 6,7 C 6,7 C 100 % 1014,6 hPa 0,0 l/m 0 min 2 min 29 W/m 12,9 km/h (3 Bft) 97,87 %
01.12.2020 11:36 7,0 C 6,7 C 6,7 C 100 % 1014,5 hPa 0,0 l/m 0 min 2 min 27 W/m 6,4 km/h (2 Bft) 97,87 %
01.12.2020 11:38 7,0 C 6,7 C 6,7 C 100 % 1014,6 hPa 0,0 l/m 0 min 2 min 24 W/m 9,7 km/h (2 Bft) 95,65 %
01.12.2020 11:40 7,0 C 6,7 C 6,7 C 100 % 1014,6 hPa 0,2 l/m 0 min 2 min 23 W/m 12,9 km/h (3 Bft) 97,87 %
01.12.2020 11:42 7,0 C 6,7 C 6,7 C 100 % 1014,6 hPa 0,0 l/m 0 min 2 min 21 W/m 6,4 km/h (2 Bft) 97,87 %
01.12.2020 11:44 7,0 C 6,7 C 6,7 C 100 % 1014,6 hPa 0,0 l/m 0 min 2 min 22 W/m 3,2 km/h (1 Bft) 95,74 %
01.12.2020 11:46 7,0 C 6,7 C 6,7 C 100 % 1014,6 hPa 0,0 l/m 0 min 2 min 21 W/m 6,4 km/h (2 Bft) 95,74 %
01.12.2020 11:48 7,1 C 6,7 C 6,7 C 100 % 1014,6 hPa 0,0 l/m 0 min 2 min 21 W/m 9,7 km/h (2 Bft) 97,87 %
01.12.2020 11:50 7,1 C 6,7 C 6,7 C 100 % 1014,6 hPa 0,0 l/m 0 min 2 min 21 W/m 6,4 km/h (2 Bft) 97,83 %
01.12.2020 11:52 7,1 C 6,7 C 6,7 C 100 % 1014,6 hPa 0,2 l/m 0 min 2 min 27 W/m 12,9 km/h (3 Bft) 95,74 %
01.12.2020 11:54 7,1 C 6,7 C 6,7 C 100 % 1014,6 hPa 0,0 l/m 0 min 2 min 44 W/m 6,4 km/h (2 Bft) 97,87 %
01.12.2020 11:56 7,1 C 6,7 C 7,2 C 100 % 1014,6 hPa 0,0 l/m 0 min 2 min 52 W/m 3,2 km/h (1 Bft) 97,87 %
01.12.2020 11:58 7,1 C 6,7 C 7,2 C 100 % 1014,6 hPa 0,0 l/m 0 min 2 min 45 W/m 9,7 km/h (2 Bft) 97,87 %
01.12.2020 12:00 7,1 C 6,7 C 7,2 C 100 % 1014,6 hPa 0,0 l/m 0 min 2 min 57 W/m 16,1 km/h (3 Bft) 97,87 %
01.12.2020 12:02 7,1 C 6,7 C 7,2 C 100 % 1014,6 hPa 0,0 l/m 0 min 0 min 70 W/m 16,1 km/h (3 Bft) 97,83 %
01.12.2020 12:04 7,1 C 6,7 C 7,2 C 100 % 1014,6 hPa 0,0 l/m 0 min 0 min 62 W/m 12,9 km/h (3 Bft) 97,87 %
01.12.2020 12:08 7,2 C 6,7 C 7,2 C 100 % 1014,7 hPa 0,0 l/m 0 min 4 min 55 W/m 9,7 km/h (2 Bft) 97,59 %
01.12.2020 12:10 7,2 C 6,7 C 7,2 C 100 % 1014,6 hPa 0,2 l/m 0 min 2 min 37 W/m 12,9 km/h (3 Bft) 95,74 %
01.12.2020 12:12 7,3 C 6,7 C 7,2 C 100 % 1014,7 hPa 0,0 l/m 0 min 2 min 26 W/m 6,4 km/h (2 Bft) 97,87 %
01.12.2020 12:14 7,3 C 6,7 C 7,2 C 100 % 1014,7 hPa 0,0 l/m 0 min 2 min 19 W/m 3,2 km/h (1 Bft) 95,74 %
01.12.2020 12:16 7,3 C 6,7 C 7,2 C 100 % 1014,7 hPa 0,2 l/m 0 min 2 min 18 W/m 16,1 km/h (3 Bft) 97,87 %
01.12.2020 12:18 7,3 C 6,7 C 7,2 C 100 % 1014,7 hPa 0,0 l/m 0 min 2 min 18 W/m 16,1 km/h (3 Bft) 100,00 %
01.12.2020 12:20 7,3 C 6,7 C 7,2 C 100 % 1014,8 hPa 0,2 l/m 0 min 2 min 19 W/m 9,7 km/h (2 Bft) 100,00 %
01.12.2020 12:22 7,3 C 6,7 C 7,2 C 100 % 1014,7 hPa 0,0 l/m 0 min 2 min 20 W/m 12,9 km/h (3 Bft) 97,87 %
01.12.2020 12:24 7,4 C 6,7 C 7,2 C 100 % 1014,8 hPa 0,2 l/m 0 min 2 min 24 W/m 12,9 km/h (3 Bft) 100,00 %
01.12.2020 12:26 7,4 C 6,7 C 7,2 C 100 % 1014,8 hPa 0,0 l/m 0 min 2 min 27 W/m 6,4 km/h (2 Bft) 100,00 %
01.12.2020 12:28 7,4 C 6,7 C 7,2 C 100 % 1014,8 hPa 0,0 l/m 0 min 2 min 32 W/m 9,7 km/h (2 Bft) 100,00 %
01.12.2020 12:30 7,4 C 6,7 C 7,2 C 100 % 1014,8 hPa 0,0 l/m 0 min 2 min 32 W/m 9,7 km/h (2 Bft) 100,00 %
01.12.2020 12:32 7,4 C 6,7 C 7,2 C 100 % 1014,7 hPa 0,2 l/m 0 min 2 min 28 W/m 16,1 km/h (3 Bft) 100,00 %
01.12.2020 12:34 7,4 C 6,7 C 7,2 C 100 % 1014,8 hPa 0,0 l/m 0 min 2 min 31 W/m 3,2 km/h (1 Bft) 100,00 %
01.12.2020 12:36 7,4 C 6,7 C 7,2 C 100 % 1014,8 hPa 0,0 l/m 0 min 2 min 34 W/m 3,2 km/h (1 Bft) 100,00 %
01.12.2020 12:38 7,4 C 6,7 C 7,2 C 100 % 1014,8 hPa 0,0 l/m 0 min 2 min 30 W/m 6,4 km/h (2 Bft) 97,83 %
01.12.2020 12:40 7,5 C 7,2 C 7,2 C 100 % 1014,8 hPa 0,0 l/m 0 min 2 min 29 W/m 19,3 km/h (3 Bft) 100,00 %
01.12.2020 12:42 7,5 C 7,2 C 7,2 C 100 % 1014,8 hPa 0,0 l/m 0 min 0 min 27 W/m 12,9 km/h (3 Bft) 100,00 %
01.12.2020 12:44 7,5 C 7,2 C 7,2 C 100 % 1014,8 hPa 0,0 l/m 0 min 0 min 33 W/m 6,4 km/h (2 Bft) 100,00 %
01.12.2020 12:46 7,5 C 7,2 C 7,2 C 100 % 1014,8 hPa 0,0 l/m 0 min 0 min 43 W/m 9,7 km/h (2 Bft) 100,00 %
01.12.2020 12:48 7,5 C 7,2 C 7,2 C 100 % 1014,8 hPa 0,0 l/m 0 min 2 min 52 W/m 22,5 km/h (4 Bft) 97,87 %
01.12.2020 12:50 7,5 C 7,2 C 7,8 C 100 % 1014,8 hPa 0,0 l/m 0 min 2 min 69 W/m 16,1 km/h (3 Bft) 97,83 %
01.12.2020 12:52 7,6 C 7,2 C 7,8 C 100 % 1014,8 hPa 0,0 l/m 0 min 2 min 90 W/m 19,3 km/h (3 Bft) 100,00 %
01.12.2020 12:54 7,6 C 7,2 C 7,8 C 100 % 1014,8 hPa 0,2 l/m 0 min 2 min 68 W/m 25,7 km/h (4 Bft) 100,00 %
01.12.2020 12:56 7,6 C 7,2 C 7,8 C 100 % 1014,9 hPa 0,0 l/m 0 min 2 min 39 W/m 19,3 km/h (3 Bft) 100,00 %
01.12.2020 12:58 7,6 C 7,2 C 7,8 C 100 % 1014,9 hPa 0,0 l/m 0 min 2 min 28 W/m 16,1 km/h (3 Bft) 97,87 %
01.12.2020 13:00 7,7 C 7,2 C 7,8 C 100 % 1014,9 hPa 0,0 l/m 0 min 2 min 32 W/m 9,7 km/h (2 Bft) 97,83 %
01.12.2020 13:02 7,7 C 7,2 C 7,8 C 100 % 1014,8 hPa 0,0 l/m 0 min 0 min 38 W/m 19,3 km/h (3 Bft) 100,00 %
01.12.2020 13:04 7,7 C 7,2 C 7,8 C 100 % 1014,9 hPa 0,0 l/m 0 min 0 min 42 W/m 16,1 km/h (3 Bft) 100,00 %
01.12.2020 13:06 7,7 C 7,2 C 7,8 C 100 % 1014,8 hPa 0,0 l/m 0 min 2 min 44 W/m 16,1 km/h (3 Bft) 95,74 %
01.12.2020 13:08 7,8 C 7,2 C 7,8 C 100 % 1014,9 hPa 0,0 l/m 0 min 2 min 48 W/m 12,9 km/h (3 Bft) 95,74 %
01.12.2020 13:10 7,8 C 7,2 C 7,8 C 100 % 1014,9 hPa 0,0 l/m 0 min 0 min 50 W/m 12,9 km/h (3 Bft) 95,92 %
01.12.2020 13:12 7,8 C 7,2 C 7,8 C 100 % 1014,9 hPa 0,0 l/m 0 min 2 min 48 W/m 16,1 km/h (3 Bft) 97,87 %
01.12.2020 13:14 7,8 C 7,2 C 7,8 C 100 % 1014,9 hPa 0,0 l/m 0 min 0 min 47 W/m 22,5 km/h (4 Bft) 97,83 %
01.12.2020 13:16 7,7 C 7,2 C 7,8 C 100 % 1014,8 hPa 0,0 l/m 0 min 2 min 40 W/m 19,3 km/h (3 Bft) 95,74 %
01.12.2020 13:18 7,8 C 7,2 C 7,8 C 100 % 1014,8 hPa 0,0 l/m 0 min 2 min 42 W/m 16,1 km/h (3 Bft) 97,87 %
01.12.2020 13:20 7,8 C 7,2 C 7,8 C 100 % 1014,8 hPa 0,2 l/m 0 min 2 min 41 W/m 19,3 km/h (3 Bft) 95,74 %
01.12.2020 13:22 7,7 C 7,2 C 7,2 C 100 % 1014,8 hPa 0,0 l/m 0 min 2 min 42 W/m 29,0 km/h (5 Bft) 95,74 %
01.12.2020 13:24 7,7 C 7,2 C 7,2 C 100 % 1014,8 hPa 0,0 l/m 0 min 0 min 36 W/m 22,5 km/h (4 Bft) 95,74 %
01.12.2020 13:26 7,7 C 6,7 C 7,2 C 100 % 1014,8 hPa 0,0 l/m 0 min 2 min 26 W/m 32,2 km/h (5 Bft) 95,65 %
01.12.2020 13:28 7,6 C 6,7 C 7,2 C 100 % 1014,8 hPa 0,0 l/m 0 min 0 min 26 W/m 19,3 km/h (3 Bft) 95,74 %
01.12.2020 13:30 7,6 C 6,7 C 7,2 C 100 % 1014,8 hPa 0,0 l/m 0 min 0 min 26 W/m 19,3 km/h (3 Bft) 93,62 %
01.12.2020 13:32 7,6 C 6,7 C 7,2 C 100 % 1014,8 hPa 0,0 l/m 0 min 0 min 26 W/m 25,7 km/h (4 Bft) 95,74 %
01.12.2020 13:34 7,6 C 6,7 C 7,2 C 100 % 1014,8 hPa 0,0 l/m 0 min 0 min 18 W/m 22,5 km/h (4 Bft) 95,74 %
01.12.2020 13:36 7,6 C 6,7 C 7,2 C 100 % 1014,9 hPa 0,0 l/m 0 min 0 min 18 W/m 19,3 km/h (3 Bft) 95,65 %
01.12.2020 13:38 7,6 C 6,7 C 7,2 C 100 % 1014,9 hPa 0,0 l/m 0 min 2 min 27 W/m 25,7 km/h (4 Bft) 95,74 %
01.12.2020 13:40 7,6 C 6,7 C 7,2 C 100 % 1014,8 hPa 0,0 l/m 0 min 0 min 39 W/m 35,4 km/h (5 Bft) 95,74 %
01.12.2020 13:42 7,6 C 7,2 C 7,2 C 100 % 1014,8 hPa 0,0 l/m 0 min 2 min 56 W/m 19,3 km/h (3 Bft) 93,62 %
01.12.2020 13:44 7,6 C 7,2 C 7,2 C 100 % 1014,8 hPa 0,0 l/m 0 min 2 min 47 W/m 22,5 km/h (4 Bft) 95,74 %
01.12.2020 13:46 7,6 C 7,2 C 7,2 C 100 % 1014,8 hPa 0,2 l/m 0 min 0 min 43 W/m 29,0 km/h (5 Bft) 95,74 %
01.12.2020 13:48 7,6 C 7,2 C 7,2 C 100 % 1014,8 hPa 0,0 l/m 0 min 2 min 54 W/m 32,2 km/h (5 Bft) 95,65 %
01.12.2020 13:50 7,6 C 7,2 C 7,8 C 100 % 1014,8 hPa 0,0 l/m 0 min 2 min 68 W/m 22,5 km/h (4 Bft) 93,62 %
01.12.2020 13:52 7,6 C 7,2 C 7,8 C 100 % 1014,9 hPa 0,0 l/m 0 min 0 min 68 W/m 35,4 km/h (5 Bft) 95,74 %
01.12.2020 13:54 7,6 C 7,2 C 7,2 C 100 % 1014,9 hPa 0,0 l/m 0 min 0 min 48 W/m 35,4 km/h (5 Bft) 97,87 %
01.12.2020 13:56 7,6 C 7,2 C 7,8 C 100 % 1014,9 hPa 0,0 l/m 0 min 0 min 51 W/m 35,4 km/h (5 Bft) 97,87 %
01.12.2020 13:58 7,6 C 7,2 C 7,8 C 100 % 1014,9 hPa 0,0 l/m 0 min 0 min 51 W/m 29,0 km/h (5 Bft) 97,87 %
01.12.2020 14:00 7,6 C 7,2 C 7,8 C 100 % 1014,9 hPa 0,0 l/m 0 min 0 min 44 W/m 25,7 km/h (4 Bft) 97,83 %
01.12.2020 14:02 7,6 C 7,2 C 7,2 C 100 % 1014,9 hPa 0,0 l/m 0 min 0 min 32 W/m 25,7 km/h (4 Bft) 97,87 %
01.12.2020 14:04 7,6 C 7,2 C 7,8 C 100 % 1014,9 hPa 0,0 l/m 0 min 0 min 28 W/m 16,1 km/h (3 Bft) 97,87 %
01.12.2020 14:06 7,6 C 7,2 C 7,2 C 100 % 1014,9 hPa 0,0 l/m 0 min 0 min 27 W/m 25,7 km/h (4 Bft) 95,74 %
01.12.2020 14:08 7,6 C 7,2 C 7,2 C 100 % 1014,9 hPa 0,0 l/m 0 min 0 min 26 W/m 22,5 km/h (4 Bft) 97,87 %
01.12.2020 14:10 7,6 C 7,2 C 7,2 C 100 % 1014,9 hPa 0,0 l/m 0 min 2 min 28 W/m 32,2 km/h (5 Bft) 97,87 %
01.12.2020 14:12 7,6 C 7,2 C 7,8 C 100 % 1014,9 hPa 0,0 l/m 0 min 2 min 22 W/m 19,3 km/h (3 Bft) 97,83 %
01.12.2020 14:14 7,6 C 7,2 C 7,8 C 100 % 1015,0 hPa 0,0 l/m 0 min 2 min 18 W/m 25,7 km/h (4 Bft) 95,74 %
01.12.2020 14:16 7,6 C 7,2 C 7,2 C 100 % 1015,0 hPa 0,0 l/m 0 min 2 min 20 W/m 12,9 km/h (3 Bft) 93,62 %
01.12.2020 14:18 7,6 C 7,2 C 7,2 C 100 % 1015,0 hPa 0,0 l/m 0 min 0 min 20 W/m 19,3 km/h (3 Bft) 95,74 %
01.12.2020 14:20 7,6 C 7,2 C 7,2 C 100 % 1015,0 hPa 0,0 l/m 0 min 0 min 20 W/m 32,2 km/h (5 Bft) 95,74 %
01.12.2020 14:22 7,6 C 7,2 C 7,2 C 100 % 1015,0 hPa 0,0 l/m 0 min 0 min 19 W/m 16,1 km/h (3 Bft) 95,65 %
01.12.2020 14:24 7,6 C 7,2 C 7,8 C 100 % 1015,0 hPa 0,0 l/m 0 min 0 min 22 W/m 19,3 km/h (3 Bft) 95,74 %
01.12.2020 14:26 7,6 C 7,2 C 7,8 C 100 % 1015,1 hPa 0,0 l/m 0 min 0 min 24 W/m 12,9 km/h (3 Bft) 95,74 %
01.12.2020 14:28 7,6 C 7,2 C 7,8 C 100 % 1015,1 hPa 0,0 l/m 0 min 0 min 21 W/m 19,3 km/h (3 Bft) 95,74 %
01.12.2020 14:30 7,6 C 7,2 C 7,8 C 100 % 1015,1 hPa 0,0 l/m 0 min 0 min 19 W/m 22,5 km/h (4 Bft) 93,62 %
01.12.2020 14:32 7,6 C 7,2 C 7,8 C 100 % 1015,1 hPa 0,0 l/m 0 min 0 min 19 W/m 16,1 km/h (3 Bft) 95,83 %
01.12.2020 14:34 7,7 C 7,2 C 7,8 C 100 % 1015,1 hPa 0,0 l/m 0 min 0 min 19 W/m 19,3 km/h (3 Bft) 93,48 %
01.12.2020 14:36 7,6 C 7,2 C 7,2 C 100 % 1015,2 hPa 0,0 l/m 0 min 2 min 21 W/m 32,2 km/h (5 Bft) 95,74 %
01.12.2020 14:38 7,7 C 7,2 C 7,8 C 100 % 1015,2 hPa 0,0 l/m 0 min 2 min 26 W/m 25,7 km/h (4 Bft) 93,62 %
01.12.2020 14:40 7,6 C 7,2 C 7,8 C 100 % 1015,2 hPa 0,0 l/m 0 min 0 min 30 W/m 25,7 km/h (4 Bft) 95,74 %
01.12.2020 14:42 7,6 C 7,2 C 7,2 C 100 % 1015,2 hPa 0,0 l/m 0 min 0 min 26 W/m 32,2 km/h (5 Bft) 95,74 %
01.12.2020 14:44 7,6 C 6,7 C 7,2 C 100 % 1015,2 hPa 0,0 l/m 0 min 2 min 23 W/m 25,7 km/h (4 Bft) 95,74 %
01.12.2020 14:46 7,6 C 6,7 C 7,2 C 100 % 1015,3 hPa 0,2 l/m 0 min 2 min 22 W/m 22,5 km/h (4 Bft) 95,65 %
01.12.2020 14:48 7,6 C 6,7 C 7,2 C 100 % 1015,2 hPa 0,0 l/m 0 min 2 min 18 W/m 12,9 km/h (3 Bft) 93,62 %
01.12.2020 14:50 7,6 C 6,7 C 7,2 C 100 % 1015,3 hPa 0,0 l/m 0 min 2 min 21 W/m 25,7 km/h (4 Bft) 95,74 %
01.12.2020 14:52 7,6 C 6,7 C 7,2 C 100 % 1015,3 hPa 0,0 l/m 0 min 0 min 19 W/m 19,3 km/h (3 Bft) 93,62 %
01.12.2020 14:54 7,6 C 6,7 C 7,2 C 100 % 1015,3 hPa 0,0 l/m 0 min 2 min 18 W/m 19,3 km/h (3 Bft) 95,74 %
01.12.2020 14:56 7,6 C 6,7 C 7,2 C 100 % 1015,3 hPa 0,0 l/m 0 min 0 min 18 W/m 19,3 km/h (3 Bft) 95,74 %
01.12.2020 14:58 7,6 C 6,7 C 7,2 C 100 % 1015,3 hPa 0,0 l/m 0 min 0 min 19 W/m 19,3 km/h (3 Bft) 95,65 %
01.12.2020 15:00 7,6 C 6,7 C 7,2 C 100 % 1015,4 hPa 0,0 l/m 0 min 0 min 20 W/m 9,7 km/h (2 Bft) 97,87 %
01.12.2020 15:02 7,6 C 6,7 C 7,2 C 100 % 1015,4 hPa 0,0 l/m 0 min 2 min 21 W/m 9,7 km/h (2 Bft) 95,83 %
01.12.2020 15:04 7,6 C 6,7 C 7,2 C 100 % 1015,3 hPa 0,2 l/m 0 min 2 min 17 W/m 12,9 km/h (3 Bft) 97,87 %
01.12.2020 15:06 7,6 C 6,7 C 7,2 C 100 % 1015,4 hPa 0,0 l/m 0 min 2 min 13 W/m 16,1 km/h (3 Bft) 97,87 %
01.12.2020 15:08 7,6 C 6,7 C 7,2 C 100 % 1015,5 hPa 0,0 l/m 0 min 0 min 12 W/m 9,7 km/h (2 Bft) 97,83 %
01.12.2020 15:10 7,5 C 6,7 C 7,2 C 100 % 1015,5 hPa 0,0 l/m 0 min 2 min 12 W/m 16,1 km/h (3 Bft) 97,87 %
01.12.2020 15:12 7,5 C 6,7 C 7,2 C 100 % 1015,6 hPa 0,0 l/m 0 min 2 min 13 W/m 9,7 km/h (2 Bft) 97,87 %
01.12.2020 15:14 7,5 C 6,7 C 7,2 C 100 % 1015,5 hPa 0,0 l/m 0 min 2 min 14 W/m 16,1 km/h (3 Bft) 97,87 %
01.12.2020 15:16 7,5 C 6,7 C 7,2 C 100 % 1015,6 hPa 0,0 l/m 0 min 2 min 11 W/m 19,3 km/h (3 Bft) 97,87 %
01.12.2020 15:18 7,5 C 6,7 C 7,2 C 100 % 1015,5 hPa 0,0 l/m 0 min 2 min 10 W/m 16,1 km/h (3 Bft) 95,74 %
01.12.2020 15:20 7,5 C 6,7 C 7,2 C 100 % 1015,6 hPa 0,0 l/m 0 min 2 min 9 W/m 16,1 km/h (3 Bft) 97,83 %
01.12.2020 15:22 7,5 C 6,7 C 7,2 C 100 % 1015,6 hPa 0,0 l/m 0 min 2 min 10 W/m 9,7 km/h (2 Bft) 97,87 %
01.12.2020 15:24 7,5 C 6,7 C 7,2 C 100 % 1015,6 hPa 0,0 l/m 0 min 2 min 12 W/m 16,1 km/h (3 Bft) 93,62 %
01.12.2020 15:26 7,5 C 6,7 C 7,2 C 100 % 1015,5 hPa 0,0 l/m 0 min 0 min 12 W/m 16,1 km/h (3 Bft) 97,87 %
01.12.2020 15:28 7,5 C 6,7 C 7,2 C 100 % 1015,6 hPa 0,0 l/m 0 min 0 min 11 W/m 19,3 km/h (3 Bft) 97,87 %
01.12.2020 15:30 7,5 C 6,7 C 7,2 C 100 % 1015,6 hPa 0,0 l/m 0 min 0 min 9 W/m 12,9 km/h (3 Bft) 97,87 %
01.12.2020 15:32 7,5 C 6,7 C 7,2 C 100 % 1015,6 hPa 0,0 l/m 0 min 2 min 9 W/m 12,9 km/h (3 Bft) 97,83 %
01.12.2020 15:34 7,5 C 6,7 C 7,2 C 100 % 1015,6 hPa 0,0 l/m 0 min 2 min 11 W/m 12,9 km/h (3 Bft) 95,74 %
01.12.2020 15:36 7,5 C 6,7 C 7,2 C 100 % 1015,6 hPa 0,0 l/m 0 min 2 min 10 W/m 16,1 km/h (3 Bft) 97,87 %
01.12.2020 15:38 7,5 C 6,7 C 7,2 C 100 % 1015,6 hPa 0,0 l/m 0 min 0 min 9 W/m 25,7 km/h (4 Bft) 97,87 %
01.12.2020 15:40 7,5 C 6,7 C 7,2 C 100 % 1015,6 hPa 0,0 l/m 0 min 2 min 9 W/m 16,1 km/h (3 Bft) 97,87 %
01.12.2020 15:42 7,5 C 6,7 C 7,2 C 100 % 1015,6 hPa 0,0 l/m 0 min 2 min 8 W/m 19,3 km/h (3 Bft) 97,87 %
01.12.2020 15:44 7,4 C 6,7 C 7,2 C 100 % 1015,6 hPa 0,0 l/m 0 min 0 min 7 W/m 22,5 km/h (4 Bft) 95,65 %
01.12.2020 15:46 7,4 C 6,7 C 7,2 C 100 % 1015,7 hPa 0,0 l/m 0 min 2 min 7 W/m 25,7 km/h (4 Bft) 95,74 %
01.12.2020 15:48 7,4 C 6,7 C 7,2 C 100 % 1015,7 hPa 0,0 l/m 0 min 2 min 7 W/m 19,3 km/h (3 Bft) 95,74 %
01.12.2020 15:50 7,4 C 6,7 C 7,2 C 100 % 1015,7 hPa 0,0 l/m 0 min 2 min 5 W/m 19,3 km/h (3 Bft) 95,74 %
01.12.2020 15:52 7,4 C 6,7 C 7,2 C 100 % 1015,7 hPa 0,2 l/m 0 min 2 min 5 W/m 16,1 km/h (3 Bft) 95,74 %
01.12.2020 15:54 7,4 C 6,7 C 7,2 C 100 % 1015,7 hPa 0,0 l/m 0 min 0 min 7 W/m 12,9 km/h (3 Bft) 93,48 %
01.12.2020 15:56 7,4 C 6,7 C 7,2 C 100 % 1015,8 hPa 0,0 l/m 0 min 2 min 7 W/m 19,3 km/h (3 Bft) 95,74 %
01.12.2020 15:58 7,4 C 6,7 C 7,2 C 100 % 1015,8 hPa 0,0 l/m 0 min 2 min 6 W/m 22,5 km/h (4 Bft) 95,74 %
01.12.2020 16:00 7,4 C 6,7 C 7,2 C 100 % 1015,8 hPa 0,0 l/m 0 min 2 min 5 W/m 9,7 km/h (2 Bft) 95,74 %
01.12.2020 16:02 7,4 C 6,7 C 7,2 C 100 % 1015,8 hPa 0,0 l/m 0 min 2 min 2 W/m 22,5 km/h (4 Bft) 95,83 %
01.12.2020 16:04 7,4 C 6,7 C 7,2 C 100 % 1015,8 hPa 0,0 l/m 0 min 2 min 2 W/m 22,5 km/h (4 Bft) 95,74 %
01.12.2020 16:06 7,4 C 6,7 C 7,2 C 100 % 1015,8 hPa 0,0 l/m 0 min 2 min 0 W/m 16,1 km/h (3 Bft) 93,48 %
01.12.2020 16:08 7,4 C 6,7 C 7,2 C 100 % 1015,8 hPa 0,0 l/m 0 min 2 min 0 W/m 16,1 km/h (3 Bft) 95,74 %
01.12.2020 16:10 7,4 C 6,7 C 7,2 C 100 % 1015,9 hPa 0,0 l/m 0 min 0 min 0 W/m 16,1 km/h (3 Bft) 95,74 %
01.12.2020 16:12 7,4 C 6,7 C 7,2 C 100 % 1015,9 hPa 0,0 l/m 0 min 2 min 0 W/m 19,3 km/h (3 Bft) 95,74 %
01.12.2020 16:14 7,4 C 6,7 C 7,2 C 100 % 1015,9 hPa 0,0 l/m 0 min 2 min 0 W/m 19,3 km/h (3 Bft) 93,62 %
01.12.2020 16:16 7,4 C 6,7 C 7,2 C 100 % 1015,9 hPa 0,0 l/m 0 min 2 min 0 W/m 16,1 km/h (3 Bft) 95,74 %
01.12.2020 16:18 7,4 C 6,7 C 7,2 C 100 % 1016,0 hPa 0,0 l/m 0 min 2 min 0 W/m 16,1 km/h (3 Bft) 91,30 %
01.12.2020 16:20 7,4 C 6,7 C 7,2 C 100 % 1016,0 hPa 0,0 l/m 0 min 0 min 0 W/m 19,3 km/h (3 Bft) 93,62 %
01.12.2020 16:22 7,4 C 6,7 C 7,2 C 100 % 1016,0 hPa 0,0 l/m 0 min 0 min 0 W/m 19,3 km/h (3 Bft) 95,74 %
01.12.2020 16:24 7,4 C 6,7 C 7,2 C 100 % 1016,0 hPa 0,0 l/m 0 min 0 min 0 W/m 16,1 km/h (3 Bft) 93,62 %
01.12.2020 16:26 7,4 C 6,7 C 7,2 C 100 % 1016,1 hPa 0,0 l/m 0 min 2 min 0 W/m 16,1 km/h (3 Bft) 95,74 %
01.12.2020 16:28 7,4 C 6,7 C 7,2 C 100 % 1016,0 hPa 0,0 l/m 0 min 2 min 0 W/m 16,1 km/h (3 Bft) 95,74 %
01.12.2020 16:30 7,4 C 6,7 C 7,2 C 100 % 1016,0 hPa 0,0 l/m 0 min 2 min 0 W/m 22,5 km/h (4 Bft) 97,83 %
01.12.2020 16:32 7,4 C 6,7 C 7,2 C 100 % 1016,1 hPa 0,0 l/m 0 min 2 min 0 W/m 19,3 km/h (3 Bft) 95,74 %
01.12.2020 16:34 7,4 C 6,7 C 7,2 C 100 % 1016,0 hPa 0,0 l/m 0 min 2 min 0 W/m 16,1 km/h (3 Bft) 95,74 %
01.12.2020 16:36 7,4 C 6,7 C 7,2 C 100 % 1016,1 hPa 0,0 l/m 0 min 0 min 0 W/m 16,1 km/h (3 Bft) 95,74 %
01.12.2020 16:38 7,4 C 6,7 C 7,2 C 100 % 1016,1 hPa 0,0 l/m 0 min 2 min 0 W/m 25,7 km/h (4 Bft) 97,87 %
01.12.2020 16:40 7,4 C 6,7 C 7,2 C 100 % 1016,1 hPa 0,0 l/m 0 min 0 min 0 W/m 16,1 km/h (3 Bft) 97,87 %
01.12.2020 16:42 7,4 C 6,7 C 7,2 C 100 % 1016,2 hPa 0,0 l/m 0 min 0 min 0 W/m 16,1 km/h (3 Bft) 97,83 %
01.12.2020 16:44 7,4 C 6,7 C 7,2 C 100 % 1016,2 hPa 0,0 l/m 0 min 0 min 0 W/m 19,3 km/h (3 Bft) 97,87 %
01.12.2020 16:46 7,4 C 6,7 C 7,2 C 100 % 1016,1 hPa 0,0 l/m 0 min 2 min 0 W/m 16,1 km/h (3 Bft) 93,62 %
01.12.2020 16:48 7,4 C 6,7 C 7,2 C 100 % 1016,2 hPa 0,0 l/m 0 min 0 min 0 W/m 12,9 km/h (3 Bft) 97,87 %
01.12.2020 16:50 7,4 C 6,7 C 7,2 C 100 % 1016,2 hPa 0,0 l/m 0 min 2 min 0 W/m 19,3 km/h (3 Bft) 97,87 %
01.12.2020 16:52 7,4 C 6,7 C 7,2 C 100 % 1016,2 hPa 0,0 l/m 0 min 2 min 0 W/m 16,1 km/h (3 Bft) 97,87 %
01.12.2020 16:54 7,4 C 6,7 C 7,2 C 100 % 1016,3 hPa 0,2 l/m 0 min 2 min 0 W/m 12,9 km/h (3 Bft) 97,83 %
01.12.2020 16:56 7,4 C 6,7 C 7,2 C 100 % 1016,3 hPa 0,0 l/m 0 min 2 min 0 W/m 16,1 km/h (3 Bft) 95,74 %
01.12.2020 16:58 7,4 C 6,7 C 7,2 C 100 % 1016,3 hPa 0,0 l/m 0 min 2 min 0 W/m 19,3 km/h (3 Bft) 97,87 %
01.12.2020 17:00 7,4 C 6,7 C 7,2 C 100 % 1016,3 hPa 0,0 l/m 0 min 0 min 0 W/m 12,9 km/h (3 Bft) 97,87 %
01.12.2020 17:02 7,4 C 6,7 C 7,2 C 100 % 1016,3 hPa 0,0 l/m 0 min 2 min 0 W/m 12,9 km/h (3 Bft) 95,74 %
01.12.2020 17:04 7,4 C 6,7 C 7,2 C 100 % 1016,3 hPa 0,0 l/m 0 min 2 min 0 W/m 12,9 km/h (3 Bft) 97,83 %
01.12.2020 17:06 7,4 C 6,7 C 7,2 C 100 % 1016,3 hPa 0,0 l/m 0 min 2 min 0 W/m 19,3 km/h (3 Bft) 97,87 %
01.12.2020 17:08 7,4 C 6,7 C 7,2 C 100 % 1016,4 hPa 0,0 l/m 0 min 0 min 0 W/m 16,1 km/h (3 Bft) 97,87 %
01.12.2020 17:10 7,4 C 6,7 C 7,2 C 100 % 1016,4 hPa 0,0 l/m 0 min 0 min 0 W/m 19,3 km/h (3 Bft) 95,74 %
01.12.2020 17:12 7,4 C 6,7 C 7,2 C 100 % 1016,4 hPa 0,0 l/m 0 min 0 min 0 W/m 12,9 km/h (3 Bft) 95,74 %
01.12.2020 17:14 7,4 C 6,7 C 7,2 C 100 % 1016,4 hPa 0,0 l/m 0 min 0 min 0 W/m 19,3 km/h (3 Bft) 97,87 %
01.12.2020 17:16 7,4 C 6,7 C 7,2 C 100 % 1016,5 hPa 0,0 l/m 0 min 0 min 0 W/m 9,7 km/h (2 Bft) 95,65 %
01.12.2020 17:18 7,4 C 6,7 C 7,2 C 100 % 1016,4 hPa 0,0 l/m 0 min 2 min 0 W/m 12,9 km/h (3 Bft) 97,78 %
01.12.2020 17:20 7,4 C 6,7 C 7,2 C 100 % 1016,4 hPa 0,0 l/m 0 min 0 min 0 W/m 16,1 km/h (3 Bft) 97,83 %
01.12.2020 17:22 7,4 C 6,7 C 7,2 C 100 % 1016,4 hPa 0,0 l/m 0 min 0 min 0 W/m 12,9 km/h (3 Bft) 97,87 %
01.12.2020 17:24 7,4 C 6,7 C 7,2 C 100 % 1016,4 hPa 0,0 l/m 0 min 0 min 0 W/m 19,3 km/h (3 Bft) 95,83 %
01.12.2020 17:26 7,4 C 6,7 C 7,2 C 100 % 1016,4 hPa 0,0 l/m 0 min 2 min 0 W/m 19,3 km/h (3 Bft) 95,83 %
01.12.2020 17:28 7,4 C 6,7 C 7,2 C 100 % 1016,5 hPa 0,2 l/m 0 min 2 min 0 W/m 12,9 km/h (3 Bft) 97,87 %
01.12.2020 17:30 7,4 C 6,7 C 7,2 C 100 % 1016,5 hPa 0,0 l/m 0 min 0 min 0 W/m 9,7 km/h (2 Bft) 97,87 %
01.12.2020 17:32 7,4 C 6,7 C 7,2 C 100 % 1016,5 hPa 0,0 l/m 0 min 2 min 0 W/m 9,7 km/h (2 Bft) 95,74 %
01.12.2020 17:34 7,4 C 6,7 C 7,2 C 100 % 1016,5 hPa 0,0 l/m 0 min 0 min 0 W/m 9,7 km/h (2 Bft) 97,87 %
01.12.2020 17:36 7,4 C 6,7 C 7,2 C 100 % 1016,5 hPa 0,0 l/m 0 min 2 min 0 W/m 9,7 km/h (2 Bft) 97,87 %
01.12.2020 17:38 7,4 C 6,7 C 7,2 C 100 % 1016,5 hPa 0,0 l/m 0 min 2 min 0 W/m 16,1 km/h (3 Bft) 97,87 %
01.12.2020 17:40 7,4 C 6,7 C 7,2 C 100 % 1016,6 hPa 0,0 l/m 0 min 0 min 0 W/m 16,1 km/h (3 Bft) 95,65 %
01.12.2020 17:42 7,4 C 6,7 C 7,2 C 100 % 1016,6 hPa 0,0 l/m 0 min 0 min 0 W/m 19,3 km/h (3 Bft) 93,62 %
01.12.2020 17:44 7,5 C 6,7 C 7,2 C 100 % 1016,6 hPa 0,0 l/m 0 min 0 min 0 W/m 9,7 km/h (2 Bft) 95,74 %
01.12.2020 17:46 7,5 C 6,7 C 7,2 C 100 % 1016,6 hPa 0,0 l/m 0 min 0 min 0 W/m 16,1 km/h (3 Bft) 100,00 %
01.12.2020 17:48 7,5 C 6,7 C 7,2 C 100 % 1016,6 hPa 0,0 l/m 0 min 0 min 0 W/m 19,3 km/h (3 Bft) 97,87 %
01.12.2020 17:50 7,5 C 6,7 C 7,2 C 100 % 1016,6 hPa 0,0 l/m 0 min 0 min 0 W/m 12,9 km/h (3 Bft) 97,87 %
01.12.2020 17:52 7,5 C 6,7 C 7,2 C 100 % 1016,6 hPa 0,0 l/m 0 min 0 min 0 W/m 12,9 km/h (3 Bft) 97,83 %
01.12.2020 17:54 7,5 C 6,7 C 7,2 C 100 % 1016,7 hPa 0,0 l/m 0 min 0 min 0 W/m 16,1 km/h (3 Bft) 100,00 %
01.12.2020 17:56 7,5 C 6,7 C 7,2 C 100 % 1016,7 hPa 0,0 l/m 0 min 0 min 0 W/m 22,5 km/h (4 Bft) 100,00 %
01.12.2020 17:58 7,5 C 6,7 C 7,2 C 100 % 1016,7 hPa 0,0 l/m 0 min 0 min 0 W/m 12,9 km/h (3 Bft) 100,00 %
01.12.2020 18:00 7,5 C 6,7 C 7,2 C 100 % 1016,7 hPa 0,0 l/m 0 min 0 min 0 W/m 16,1 km/h (3 Bft) 97,87 %
01.12.2020 18:02 7,5 C 6,7 C 7,2 C 100 % 1016,8 hPa 0,0 l/m 0 min 0 min 0 W/m 9,7 km/h (2 Bft) 97,87 %
01.12.2020 18:04 7,5 C 6,7 C 7,2 C 100 % 1016,8 hPa 0,0 l/m 0 min 0 min 0 W/m 25,7 km/h (4 Bft) 100,00 %
01.12.2020 18:06 7,5 C 6,7 C 7,2 C 100 % 1016,8 hPa 0,0 l/m 0 min 0 min 0 W/m 9,7 km/h (2 Bft) 100,00 %
01.12.2020 18:08 7,5 C 6,7 C 7,2 C 100 % 1016,8 hPa 0,0 l/m 0 min 0 min 0 W/m 9,7 km/h (2 Bft) 100,00 %
01.12.2020 18:10 7,5 C 6,7 C 7,2 C 100 % 1016,9 hPa 0,0 l/m 0 min 0 min 0 W/m 9,7 km/h (2 Bft) 97,87 %
01.12.2020 18:12 7,5 C 6,7 C 7,2 C 100 % 1016,9 hPa 0,0 l/m 0 min 0 min 0 W/m 12,9 km/h (3 Bft) 97,87 %
01.12.2020 18:14 7,5 C 6,7 C 7,2 C 100 % 1016,9 hPa 0,0 l/m 0 min 0 min 0 W/m 12,9 km/h (3 Bft) 97,83 %
01.12.2020 18:16 7,4 C 6,7 C 7,2 C 100 % 1017,0 hPa 0,0 l/m 0 min 0 min 0 W/m 9,7 km/h (2 Bft) 100,00 %
01.12.2020 18:18 7,5 C 6,7 C 7,2 C 100 % 1017,0 hPa 0,0 l/m 0 min 0 min 0 W/m 16,1 km/h (3 Bft) 100,00 %
01.12.2020 18:20 7,5 C 6,7 C 7,2 C 100 % 1017,0 hPa 0,0 l/m 0 min 0 min 0 W/m 6,4 km/h (2 Bft) 95,74 %
01.12.2020 18:22 7,4 C 6,7 C 7,2 C 100 % 1017,0 hPa 0,0 l/m 0 min 0 min 0 W/m 9,7 km/h (2 Bft) 97,87 %
01.12.2020 18:24 7,5 C 6,7 C 7,2 C 100 % 1017,0 hPa 0,0 l/m 0 min 0 min 0 W/m 9,7 km/h (2 Bft) 100,00 %
01.12.2020 18:26 7,4 C 6,7 C 7,2 C 100 % 1017,0 hPa 0,0 l/m 0 min 0 min 0 W/m 9,7 km/h (2 Bft) 97,83 %
01.12.2020 18:28 7,4 C 6,7 C 7,2 C 100 % 1017,0 hPa 0,0 l/m 0 min 0 min 0 W/m 6,4 km/h (2 Bft) 97,87 %
01.12.2020 18:30 7,4 C 6,7 C 7,2 C 100 % 1017,0 hPa 0,0 l/m 0 min 0 min 0 W/m 3,2 km/h (1 Bft) 95,74 %
01.12.2020 18:32 7,4 C 6,7 C 7,2 C 100 % 1017,1 hPa 0,2 l/m 0 min 0 min 0 W/m 6,4 km/h (2 Bft) 97,87 %
01.12.2020 18:34 7,4 C 6,7 C 7,2 C 100 % 1017,1 hPa 0,0 l/m 0 min 0 min 0 W/m 9,7 km/h (2 Bft) 95,74 %
01.12.2020 18:36 7,4 C 6,7 C 7,2 C 100 % 1017,2 hPa 0,0 l/m 0 min 0 min 0 W/m 9,7 km/h (2 Bft) 97,87 %
01.12.2020 18:38 7,4 C 6,7 C 7,2 C 100 % 1017,2 hPa 0,0 l/m 0 min 0 min 0 W/m 6,4 km/h (2 Bft) 95,65 %
01.12.2020 18:40 7,4 C 6,7 C 7,2 C 100 % 1017,2 hPa 0,0 l/m 0 min 0 min 0 W/m 16,1 km/h (3 Bft) 97,87 %
01.12.2020 18:42 7,4 C 6,7 C 7,2 C 100 % 1017,2 hPa 0,0 l/m 0 min 0 min 0 W/m 19,3 km/h (3 Bft) 97,62 %
01.12.2020 18:44 7,4 C 6,7 C 7,2 C 100 % 1017,2 hPa 0,0 l/m 0 min 0 min 0 W/m 9,7 km/h (2 Bft) 97,83 %
01.12.2020 18:46 7,4 C 6,7 C 7,2 C 100 % 1017,2 hPa 0,0 l/m 0 min 0 min 0 W/m 12,9 km/h (3 Bft) 97,92 %
01.12.2020 18:48 7,4 C 6,7 C 7,2 C 100 % 1017,2 hPa 0,0 l/m 0 min 2 min 0 W/m 16,1 km/h (3 Bft) 97,92 %
01.12.2020 18:50 7,4 C 6,7 C 7,2 C 100 % 1017,3 hPa 0,0 l/m 0 min 0 min 0 W/m 3,2 km/h (1 Bft) 97,92 %
01.12.2020 18:52 7,4 C 6,7 C 7,2 C 100 % 1017,3 hPa 0,0 l/m 0 min 0 min 0 W/m 6,4 km/h (2 Bft) 97,92 %
01.12.2020 18:54 7,4 C 6,7 C 7,2 C 100 % 1017,3 hPa 0,0 l/m 0 min 2 min 0 W/m 12,9 km/h (3 Bft) 97,87 %
01.12.2020 18:56 7,4 C 6,7 C 7,2 C 100 % 1017,3 hPa 0,0 l/m 0 min 0 min 0 W/m 9,7 km/h (2 Bft) 97,92 %
01.12.2020 18:58 7,4 C 6,7 C 7,2 C 100 % 1017,3 hPa 0,0 l/m 0 min 0 min 0 W/m 9,7 km/h (2 Bft) 97,87 %
01.12.2020 19:00 7,4 C 6,7 C 7,2 C 100 % 1017,4 hPa 0,0 l/m 0 min 0 min 0 W/m 9,7 km/h (2 Bft) 93,48 %
01.12.2020 19:02 7,4 C 6,7 C 7,2 C 100 % 1017,4 hPa 0,0 l/m 0 min 0 min 0 W/m 12,9 km/h (3 Bft) 100,00 %
01.12.2020 19:04 7,4 C 6,7 C 7,2 C 100 % 1017,4 hPa 0,0 l/m 0 min 0 min 0 W/m 6,4 km/h (2 Bft) 93,62 %
01.12.2020 19:06 7,4 C 6,7 C 7,2 C 100 % 1017,5 hPa 0,0 l/m 0 min 0 min 0 W/m 9,7 km/h (2 Bft) 97,83 %
01.12.2020 19:08 7,4 C 6,7 C 7,2 C 100 % 1017,5 hPa 0,0 l/m 0 min 0 min 0 W/m 6,4 km/h (2 Bft) 95,74 %
01.12.2020 19:10 7,4 C 6,7 C 7,2 C 100 % 1017,5 hPa 0,0 l/m 0 min 0 min 0 W/m 6,4 km/h (2 Bft) 100,00 %
01.12.2020 19:12 7,4 C 6,7 C 7,2 C 100 % 1017,5 hPa 0,0 l/m 0 min 0 min 0 W/m 16,1 km/h (3 Bft) 100,00 %
01.12.2020 19:14 7,4 C 6,7 C 7,2 C 100 % 1017,5 hPa 0,0 l/m 0 min 0 min 0 W/m 12,9 km/h (3 Bft) 100,00 %
01.12.2020 19:16 7,4 C 6,7 C 7,2 C 100 % 1017,6 hPa 0,0 l/m 0 min 0 min 0 W/m 6,4 km/h (2 Bft) 100,00 %
01.12.2020 19:18 7,4 C 6,7 C 7,2 C 100 % 1017,6 hPa 0,0 l/m 0 min 0 min 0 W/m 6,4 km/h (2 Bft) 100,00 %
01.12.2020 19:20 7,4 C 6,7 C 7,2 C 100 % 1017,6 hPa 0,0 l/m 0 min 0 min 0 W/m 0,0 km/h (0 Bft) 95,74 %
01.12.2020 19:22 7,4 C 6,7 C 7,2 C 100 % 1017,7 hPa 0,0 l/m 0 min 0 min 0 W/m 9,7 km/h (2 Bft) 100,00 %
01.12.2020 19:24 7,4 C 6,7 C 7,2 C 100 % 1017,7 hPa 0,0 l/m 0 min 0 min 0 W/m 9,7 km/h (2 Bft) 100,00 %
01.12.2020 19:26 7,4 C 6,7 C 7,2 C 100 % 1017,7 hPa 0,0 l/m 0 min 0 min 0 W/m 9,7 km/h (2 Bft) 97,87 %
01.12.2020 19:28 7,4 C 6,7 C 7,2 C 100 % 1017,8 hPa 0,0 l/m 0 min 0 min 0 W/m 3,2 km/h (1 Bft) 100,00 %
01.12.2020 19:30 7,4 C 6,7 C 7,2 C 100 % 1017,8 hPa 0,0 l/m 0 min 0 min 0 W/m 6,4 km/h (2 Bft) 100,00 %
01.12.2020 19:32 7,4 C 6,7 C 7,2 C 100 % 1017,8 hPa 0,0 l/m 0 min 0 min 0 W/m 9,7 km/h (2 Bft) 100,00 %
01.12.2020 19:34 7,4 C 6,7 C 7,2 C 100 % 1017,8 hPa 0,0 l/m 0 min 0 min 0 W/m 6,4 km/h (2 Bft) 100,00 %
01.12.2020 19:36 7,4 C 6,7 C 7,2 C 100 % 1017,9 hPa 0,0 l/m 0 min 0 min 0 W/m 6,4 km/h (2 Bft) 100,00 %
01.12.2020 19:38 7,4 C 6,7 C 7,2 C 100 % 1017,9 hPa 0,0 l/m 0 min 0 min 0 W/m 3,2 km/h (1 Bft) 97,92 %
01.12.2020 19:40 7,4 C 6,7 C 7,2 C 100 % 1018,0 hPa 0,0 l/m 0 min 2 min 0 W/m 3,2 km/h (1 Bft) 100,00 %
01.12.2020 19:42 7,4 C 6,7 C 7,2 C 100 % 1018,0 hPa 0,0 l/m 0 min 2 min 0 W/m 16,1 km/h (3 Bft) 95,83 %
01.12.2020 19:44 7,4 C 6,7 C 7,2 C 100 % 1018,0 hPa 0,0 l/m 0 min 0 min 0 W/m 9,7 km/h (2 Bft) 100,00 %
01.12.2020 19:46 7,3 C 6,7 C 7,2 C 100 % 1018,0 hPa 0,0 l/m 0 min 2 min 0 W/m 3,2 km/h (1 Bft) 95,83 %
01.12.2020 19:48 7,3 C 6,7 C 7,2 C 100 % 1018,0 hPa 0,2 l/m 0 min 2 min 0 W/m 0,0 km/h (0 Bft) 93,62 %
01.12.2020 19:50 7,3 C 6,7 C 7,2 C 100 % 1018,1 hPa 0,0 l/m 0 min 2 min 0 W/m 3,2 km/h (1 Bft) 97,87 %
01.12.2020 19:52 7,3 C 6,7 C 7,2 C 100 % 1018,1 hPa 0,0 l/m 0 min 0 min 0 W/m 3,2 km/h (1 Bft) 97,87 %
01.12.2020 19:54 7,3 C 6,7 C 7,2 C 100 % 1018,1 hPa 0,0 l/m 0 min 0 min 0 W/m 6,4 km/h (2 Bft) 97,87 %
01.12.2020 19:56 7,3 C 6,7 C 7,2 C 100 % 1018,2 hPa 0,0 l/m 0 min 0 min 0 W/m 0,0 km/h (0 Bft) 97,87 %
01.12.2020 19:58 7,3 C 6,7 C 7,2 C 100 % 1018,2 hPa 0,0 l/m 0 min 0 min 0 W/m 0,0 km/h (0 Bft) 97,83 %
01.12.2020 20:00 7,3 C 6,7 C 7,2 C 100 % 1018,2 hPa 0,0 l/m 0 min 0 min 0 W/m 0,0 km/h (0 Bft) 97,87 %
01.12.2020 20:02 7,3 C 6,7 C 7,2 C 100 % 1018,2 hPa 0,2 l/m 0 min 0 min 0 W/m 0,0 km/h (0 Bft) 95,74 %
01.12.2020 20:04 7,3 C 6,7 C 7,2 C 100 % 1018,3 hPa 0,0 l/m 0 min 0 min 0 W/m 9,7 km/h (2 Bft) 97,87 %
01.12.2020 20:06 7,3 C 6,7 C 7,2 C 100 % 1018,2 hPa 0,0 l/m 0 min 0 min 0 W/m 9,7 km/h (2 Bft) 97,87 %
01.12.2020 20:08 7,3 C 6,7 C 7,2 C 100 % 1018,2 hPa 0,0 l/m 0 min 0 min 0 W/m 0,0 km/h (0 Bft) 97,87 %
01.12.2020 20:10 7,3 C 6,7 C 7,2 C 100 % 1018,3 hPa 0,0 l/m 0 min 0 min 0 W/m 0,0 km/h (0 Bft) 97,83 %
01.12.2020 20:12 7,3 C 6,7 C 7,2 C 100 % 1018,3 hPa 0,0 l/m 0 min 0 min 0 W/m 0,0 km/h (0 Bft) 97,87 %
01.12.2020 20:14 7,3 C 6,7 C 7,2 C 100 % 1018,3 hPa 0,0 l/m 0 min 0 min 0 W/m 6,4 km/h (2 Bft) 97,62 %
01.12.2020 20:16 7,2 C 6,1 C 7,2 C 100 % 1018,3 hPa 0,0 l/m 0 min 0 min 0 W/m 0,0 km/h (0 Bft) 97,83 %
01.12.2020 20:18 7,2 C 6,1 C 7,2 C 100 % 1018,4 hPa 0,2 l/m 0 min 0 min 0 W/m 6,4 km/h (2 Bft) 97,87 %
01.12.2020 20:20 7,2 C 6,1 C 7,2 C 100 % 1018,4 hPa 0,0 l/m 0 min 0 min 0 W/m 9,7 km/h (2 Bft) 97,87 %
01.12.2020 20:22 7,2 C 6,1 C 7,2 C 100 % 1018,4 hPa 0,0 l/m 0 min 0 min 0 W/m 3,2 km/h (1 Bft) 95,74 %
01.12.2020 20:24 7,1 C 6,1 C 7,2 C 100 % 1018,5 hPa 0,0 l/m 0 min 0 min 0 W/m 3,2 km/h (1 Bft) 97,92 %
01.12.2020 20:26 7,1 C 6,1 C 7,2 C 100 % 1018,5 hPa 0,0 l/m 0 min 0 min 0 W/m 0,0 km/h (0 Bft) 97,87 %
01.12.2020 20:28 7,1 C 6,1 C 7,2 C 100 % 1018,5 hPa 0,0 l/m 0 min 0 min 0 W/m 6,4 km/h (2 Bft) 97,83 %
01.12.2020 20:30 7,1 C 6,1 C 7,2 C 100 % 1018,5 hPa 0,0 l/m 0 min 0 min 0 W/m 0,0 km/h (0 Bft) 97,87 %
01.12.2020 20:32 7,1 C 6,1 C 7,2 C 100 % 1018,6 hPa 0,0 l/m 0 min 0 min 0 W/m 0,0 km/h (0 Bft) 97,87 %
01.12.2020 20:34 7,1 C 6,1 C 7,2 C 100 % 1018,6 hPa 0,0 l/m 0 min 0 min 0 W/m 0,0 km/h (0 Bft) 100,00 %
01.12.2020 20:36 7,1 C 6,1 C 7,2 C 100 % 1018,7 hPa 0,0 l/m 0 min 0 min 0 W/m 0,0 km/h (0 Bft) 100,00 %
01.12.2020 20:38 7,1 C 6,1 C 7,2 C 100 % 1018,7 hPa 0,0 l/m 0 min 0 min 0 W/m 3,2 km/h (1 Bft) 97,87 %
01.12.2020 20:40 7,0 C 6,1 C 7,2 C 100 % 1018,7 hPa 0,0 l/m 0 min 0 min 0 W/m 0,0 km/h (0 Bft) 98,15 %
01.12.2020 20:42 7,0 C 6,1 C 7,2 C 100 % 1018,7 hPa 0,0 l/m 0 min 0 min 0 W/m 0,0 km/h (0 Bft) 100,00 %
01.12.2020 20:44 7,0 C 6,1 C 7,2 C 100 % 1018,8 hPa 0,0 l/m 0 min 2 min 0 W/m 0,0 km/h (0 Bft) 100,00 %
01.12.2020 20:46 7,0 C 6,1 C 7,2 C 100 % 1018,8 hPa 0,0 l/m 0 min 0 min 0 W/m 0,0 km/h (0 Bft) 97,87 %
01.12.2020 20:48 7,0 C 6,1 C 7,2 C 100 % 1018,8 hPa 0,0 l/m 0 min 0 min 0 W/m 0,0 km/h (0 Bft) 100,00 %
01.12.2020 20:50 7,0 C 6,1 C 7,2 C 100 % 1018,9 hPa 0,0 l/m 0 min 0 min 0 W/m 0,0 km/h (0 Bft) 100,00 %
01.12.2020 20:52 7,0 C 6,1 C 7,2 C 100 % 1018,9 hPa 0,0 l/m 0 min 0 min 0 W/m 0,0 km/h (0 Bft) 97,87 %
01.12.2020 20:54 7,0 C 6,1 C 7,2 C 100 % 1019,0 hPa 0,0 l/m 0 min 0 min 0 W/m 0,0 km/h (0 Bft) 100,00 %
01.12.2020 20:56 7,0 C 6,1 C 7,2 C 100 % 1019,0 hPa 0,0 l/m 0 min 0 min 0 W/m 0,0 km/h (0 Bft) 95,65 %
01.12.2020 20:58 7,0 C 6,1 C 7,2 C 100 % 1019,0 hPa 0,0 l/m 0 min 0 min 0 W/m 0,0 km/h (0 Bft) 100,00 %
01.12.2020 21:00 7,0 C 6,1 C 7,2 C 100 % 1019,0 hPa 0,0 l/m 0 min 0 min 0 W/m 0,0 km/h (0 Bft) 100,00 %
01.12.2020 21:02 7,0 C 6,1 C 7,2 C 100 % 1019,0 hPa 0,0 l/m 0 min 0 min 0 W/m 0,0 km/h (0 Bft) 100,00 %
01.12.2020 21:04 7,0 C 6,1 C 7,2 C 100 % 1019,1 hPa 0,0 l/m 0 min 0 min 0 W/m 0,0 km/h (0 Bft) 97,87 %
01.12.2020 21:06 7,0 C 6,1 C 7,2 C 100 % 1019,0 hPa 0,0 l/m 0 min 0 min 0 W/m 0,0 km/h (0 Bft) 95,65 %
01.12.2020 21:08 7,0 C 6,1 C 7,2 C 100 % 1019,0 hPa 0,0 l/m 0 min 0 min 0 W/m 0,0 km/h (0 Bft) 97,87 %
01.12.2020 21:10 7,0 C 6,1 C 7,2 C 100 % 1019,1 hPa 0,2 l/m 0 min 0 min 0 W/m 0,0 km/h (0 Bft) 95,74 %
01.12.2020 21:12 7,0 C 6,1 C 7,2 C 100 % 1019,1 hPa 0,0 l/m 0 min 0 min 0 W/m 0,0 km/h (0 Bft) 95,74 %
01.12.2020 21:14 6,9 C 6,1 C 7,2 C 100 % 1019,1 hPa 0,0 l/m 0 min 0 min 0 W/m 0,0 km/h (0 Bft) 95,74 %
01.12.2020 21:16 6,9 C 6,1 C 7,2 C 100 % 1019,1 hPa 0,0 l/m 0 min 0 min 0 W/m 0,0 km/h (0 Bft) 97,87 %
01.12.2020 21:18 6,9 C 6,1 C 7,2 C 100 % 1019,1 hPa 0,0 l/m 0 min 0 min 0 W/m 0,0 km/h (0 Bft) 97,83 %
01.12.2020 21:20 6,9 C 6,1 C 7,2 C 100 % 1019,1 hPa 0,0 l/m 0 min 0 min 0 W/m 0,0 km/h (0 Bft) 97,87 %
01.12.2020 21:22 6,9 C 6,1 C 7,2 C 100 % 1019,1 hPa 0,0 l/m 0 min 0 min 0 W/m 0,0 km/h (0 Bft) 97,87 %
01.12.2020 21:24 6,9 C 6,1 C 7,2 C 100 % 1019,2 hPa 0,0 l/m 0 min 0 min 0 W/m 0,0 km/h (0 Bft) 97,87 %
01.12.2020 21:26 6,9 C 6,1 C 7,2 C 100 % 1019,2 hPa 0,0 l/m 0 min 0 min 0 W/m 0,0 km/h (0 Bft) 97,87 %
01.12.2020 21:28 6,9 C 6,1 C 7,2 C 100 % 1019,2 hPa 0,0 l/m 0 min 0 min 0 W/m 0,0 km/h (0 Bft) 95,74 %
01.12.2020 21:30 6,9 C 6,1 C 7,2 C 100 % 1019,3 hPa 0,0 l/m 0 min 0 min 0 W/m 0,0 km/h (0 Bft) 97,83 %
01.12.2020 21:32 6,9 C 6,1 C 7,2 C 100 % 1019,2 hPa 0,0 l/m 0 min 0 min 0 W/m 0,0 km/h (0 Bft) 97,87 %
01.12.2020 21:34 6,9 C 6,1 C 7,2 C 100 % 1019,2 hPa 0,0 l/m 0 min 0 min 0 W/m 0,0 km/h (0 Bft) 97,87 %
01.12.2020 21:36 6,9 C 6,1 C 7,2 C 100 % 1019,2 hPa 0,0 l/m 0 min 0 min 0 W/m 0,0 km/h (0 Bft) 97,87 %
01.12.2020 21:38 6,9 C 6,1 C 7,2 C 100 % 1019,2 hPa 0,0 l/m 0 min 0 min 0 W/m 0,0 km/h (0 Bft) 97,87 %
01.12.2020 21:40 6,9 C 6,1 C 7,2 C 100 % 1019,2 hPa 0,2 l/m 0 min 0 min 0 W/m 0,0 km/h (0 Bft) 97,87 %
01.12.2020 21:42 6,9 C 6,1 C 7,2 C 100 % 1019,3 hPa 0,0 l/m 0 min 0 min 0 W/m 0,0 km/h (0 Bft) 97,83 %
01.12.2020 21:44 6,9 C 6,1 C 7,2 C 100 % 1019,3 hPa 0,0 l/m 0 min 0 min 0 W/m 0,0 km/h (0 Bft) 95,74 %
01.12.2020 21:46 6,9 C 6,1 C 6,7 C 100 % 1019,3 hPa 0,0 l/m 0 min 0 min 0 W/m 0,0 km/h (0 Bft) 100,00 %
01.12.2020 21:48 6,8 C 6,1 C 6,7 C 100 % 1019,3 hPa 0,0 l/m 0 min 0 min 0 W/m 0,0 km/h (0 Bft) 100,00 %
01.12.2020 21:50 6,8 C 6,1 C 6,7 C 100 % 1019,3 hPa 0,0 l/m 0 min 0 min 0 W/m 0,0 km/h (0 Bft) 100,00 %
01.12.2020 21:52 6,8 C 6,1 C 6,7 C 100 % 1019,3 hPa 0,0 l/m 0 min 0 min 0 W/m 0,0 km/h (0 Bft) 97,87 %
01.12.2020 21:54 6,8 C 6,1 C 6,7 C 100 % 1019,3 hPa 0,0 l/m 0 min 0 min 0 W/m 0,0 km/h (0 Bft) 100,00 %
01.12.2020 21:56 6,8 C 6,1 C 6,7 C 100 % 1019,4 hPa 0,0 l/m 0 min 0 min 0 W/m 0,0 km/h (0 Bft) 100,00 %
01.12.2020 21:58 6,8 C 5,6 C 6,7 C 100 % 1019,4 hPa 0,0 l/m 0 min 0 min 0 W/m 0,0 km/h (0 Bft) 100,00 %
01.12.2020 22:00 6,7 C 5,6 C 6,7 C 100 % 1019,3 hPa 0,0 l/m 0 min 0 min 0 W/m 0,0 km/h (0 Bft) 100,00 %
01.12.2020 22:02 6,6 C 5,6 C 6,7 C 100 % 1019,5 hPa 0,0 l/m 0 min 0 min 0 W/m 0,0 km/h (0 Bft) 100,00 %
01.12.2020 22:04 6,6 C 5,6 C 6,7 C 100 % 1019,5 hPa 0,0 l/m 0 min 0 min 0 W/m 0,0 km/h (0 Bft) 97,83 %
01.12.2020 22:06 6,6 C 5,6 C 6,7 C 100 % 1019,5 hPa 0,0 l/m 0 min 0 min 0 W/m 0,0 km/h (0 Bft) 100,00 %
01.12.2020 22:08 6,6 C 5,6 C 6,7 C 100 % 1019,5 hPa 0,0 l/m 0 min 0 min 0 W/m 0,0 km/h (0 Bft) 97,87 %
01.12.2020 22:10 6,6 C 5,6 C 6,7 C 100 % 1019,5 hPa 0,2 l/m 0 min 0 min 0 W/m 0,0 km/h (0 Bft) 100,00 %
01.12.2020 22:12 6,6 C 5,6 C 6,7 C 100 % 1019,5 hPa 0,0 l/m 0 min 0 min 0 W/m 0,0 km/h (0 Bft) 100,00 %
01.12.2020 22:14 6,6 C 5,6 C 6,7 C 100 % 1019,5 hPa 0,0 l/m 0 min 0 min 0 W/m 0,0 km/h (0 Bft) 100,00 %
01.12.2020 22:16 6,6 C 5,6 C 6,7 C 100 % 1019,6 hPa 0,0 l/m 0 min 0 min 0 W/m 0,0 km/h (0 Bft) 97,83 %
01.12.2020 22:18 6,6 C 5,6 C 6,7 C 100 % 1019,6 hPa 0,0 l/m 0 min 0 min 0 W/m 0,0 km/h (0 Bft) 100,00 %
01.12.2020 22:20 6,5 C 5,6 C 6,7 C 100 % 1019,7 hPa 0,0 l/m 0 min 0 min 0 W/m 0,0 km/h (0 Bft) 100,00 %
01.12.2020 22:22 6,5 C 5,6 C 6,7 C 100 % 1019,7 hPa 0,0 l/m 0 min 0 min 0 W/m 0,0 km/h (0 Bft) 100,00 %
01.12.2020 22:24 6,5 C 5,6 C 6,7 C 100 % 1019,7 hPa 0,0 l/m 0 min 0 min 0 W/m 0,0 km/h (0 Bft) 100,00 %
01.12.2020 22:26 6,5 C 5,6 C 6,7 C 100 % 1019,7 hPa 0,2 l/m 0 min 0 min 0 W/m 0,0 km/h (0 Bft) 100,00 %
01.12.2020 22:28 6,5 C 5,6 C 6,7 C 100 % 1019,8 hPa 0,0 l/m 0 min 0 min 0 W/m 0,0 km/h (0 Bft) 100,00 %
01.12.2020 22:30 6,4 C 5,6 C 6,7 C 100 % 1019,7 hPa 0,0 l/m 0 min 0 min 0 W/m 0,0 km/h (0 Bft) 100,00 %
01.12.2020 22:32 6,4 C 5,6 C 6,7 C 100 % 1019,8 hPa 0,0 l/m 0 min 0 min 0 W/m 0,0 km/h (0 Bft) 100,00 %
01.12.2020 22:34 6,4 C 5,6 C 6,7 C 100 % 1019,8 hPa 0,2 l/m 0 min 2 min 0 W/m 0,0 km/h (0 Bft) 100,00 %
01.12.2020 22:36 6,4 C 5,6 C 6,7 C 100 % 1019,8 hPa 0,0 l/m 0 min 2 min 0 W/m 0,0 km/h (0 Bft) 97,87 %
01.12.2020 22:38 6,4 C 5,6 C 6,7 C 100 % 1019,8 hPa 0,0 l/m 0 min 2 min 0 W/m 0,0 km/h (0 Bft) 97,87 %
01.12.2020 22:40 6,4 C 5,6 C 6,7 C 100 % 1019,8 hPa 0,0 l/m 0 min 0 min 0 W/m 0,0 km/h (0 Bft) 95,74 %
01.12.2020 22:42 6,4 C 5,6 C 6,7 C 100 % 1019,8 hPa 0,0 l/m 0 min 0 min 0 W/m 0,0 km/h (0 Bft) 97,87 %
01.12.2020 22:44 6,4 C 5,6 C 6,7 C 100 % 1019,8 hPa 0,2 l/m 0 min 0 min 0 W/m 0,0 km/h (0 Bft) 93,48 %
01.12.2020 22:46 6,4 C 5,6 C 6,7 C 100 % 1019,8 hPa 0,0 l/m 0 min 0 min 0 W/m 0,0 km/h (0 Bft) 97,87 %
01.12.2020 22:48 6,4 C 5,6 C 6,7 C 100 % 1019,8 hPa 0,0 l/m 0 min 0 min 0 W/m 0,0 km/h (0 Bft) 97,87 %
01.12.2020 22:50 6,4 C 5,6 C 6,7 C 100 % 1019,8 hPa 0,0 l/m 0 min 0 min 0 W/m 0,0 km/h (0 Bft) 97,87 %
01.12.2020 22:52 6,4 C 5,6 C 6,7 C 100 % 1019,8 hPa 0,2 l/m 0 min 0 min 0 W/m 0,0 km/h (0 Bft) 97,87 %
01.12.2020 22:54 6,4 C 5,6 C 6,7 C 100 % 1019,8 hPa 0,0 l/m 0 min 0 min 0 W/m 0,0 km/h (0 Bft) 97,83 %
01.12.2020 22:56 6,4 C 5,6 C 6,7 C 100 % 1019,8 hPa 0,0 l/m 0 min 0 min 0 W/m 0,0 km/h (0 Bft) 97,87 %
01.12.2020 22:58 6,4 C 5,6 C 6,7 C 100 % 1019,8 hPa 0,0 l/m 0 min 0 min 0 W/m 0,0 km/h (0 Bft) 95,74 %
01.12.2020 23:00 6,4 C 5,6 C 6,7 C 100 % 1019,8 hPa 0,0 l/m 0 min 0 min 0 W/m 0,0 km/h (0 Bft) 97,87 %
01.12.2020 23:02 6,4 C 5,6 C 6,7 C 100 % 1019,8 hPa 0,0 l/m 0 min 0 min 0 W/m 0,0 km/h (0 Bft) 97,92 %
01.12.2020 23:04 6,4 C 5,6 C 6,7 C 100 % 1019,8 hPa 0,0 l/m 0 min 0 min 0 W/m 0,0 km/h (0 Bft) 97,87 %
01.12.2020 23:06 6,4 C 5,6 C 6,7 C 100 % 1019,9 hPa 0,0 l/m 0 min 0 min 0 W/m 0,0 km/h (0 Bft) 97,92 %
01.12.2020 23:08 6,3 C 5,6 C 6,7 C 100 % 1019,9 hPa 0,0 l/m 0 min 0 min 0 W/m 0,0 km/h (0 Bft) 97,87 %
01.12.2020 23:10 6,3 C 5,6 C 6,7 C 100 % 1020,0 hPa 0,0 l/m 0 min 0 min 0 W/m 0,0 km/h (0 Bft) 98,11 %
01.12.2020 23:12 6,3 C 5,6 C 6,7 C 100 % 1019,9 hPa 0,0 l/m 0 min 0 min 0 W/m 0,0 km/h (0 Bft) 95,74 %
01.12.2020 23:14 6,3 C 5,6 C 6,7 C 100 % 1019,9 hPa 0,0 l/m 0 min 0 min 0 W/m 0,0 km/h (0 Bft) 97,87 %
01.12.2020 23:16 6,3 C 5,6 C 6,7 C 100 % 1019,9 hPa 0,0 l/m 0 min 0 min 0 W/m 0,0 km/h (0 Bft) 95,74 %
01.12.2020 23:18 6,3 C 5,6 C 6,7 C 100 % 1019,9 hPa 0,0 l/m 0 min 0 min 0 W/m 0,0 km/h (0 Bft) 96,97 %
01.12.2020 23:20 6,3 C 5,6 C 6,7 C 100 % 1019,9 hPa 0,0 l/m 0 min 0 min 0 W/m 0,0 km/h (0 Bft) 97,87 %
01.12.2020 23:22 6,3 C 5,6 C 6,7 C 100 % 1020,0 hPa 0,0 l/m 0 min 0 min 0 W/m 0,0 km/h (0 Bft) 97,87 %
01.12.2020 23:24 6,3 C 5,6 C 6,7 C 100 % 1020,0 hPa 0,0 l/m 0 min 0 min 0 W/m 0,0 km/h (0 Bft) 97,83 %
01.12.2020 23:26 6,3 C 5,6 C 6,7 C 100 % 1020,0 hPa 0,0 l/m 0 min 0 min 0 W/m 0,0 km/h (0 Bft) 100,00 %
01.12.2020 23:28 6,3 C 5,6 C 6,7 C 100 % 1020,0 hPa 0,0 l/m 0 min 0 min 0 W/m 0,0 km/h (0 Bft) 100,00 %
01.12.2020 23:30 6,3 C 5,6 C 6,7 C 100 % 1019,9 hPa 0,0 l/m 0 min 0 min 0 W/m 0,0 km/h (0 Bft) 95,74 %
01.12.2020 23:32 6,3 C 5,6 C 6,7 C 100 % 1019,9 hPa 0,0 l/m 0 min 0 min 0 W/m 0,0 km/h (0 Bft) 100,00 %
01.12.2020 23:34 6,3 C 5,6 C 6,7 C 100 % 1020,0 hPa 0,0 l/m 0 min 0 min 0 W/m 0,0 km/h (0 Bft) 97,87 %
01.12.2020 23:36 6,3 C 5,6 C 6,7 C 100 % 1020,0 hPa 0,0 l/m 0 min 0 min 0 W/m 0,0 km/h (0 Bft) 100,00 %
01.12.2020 23:38 6,3 C 5,6 C 6,7 C 100 % 1020,0 hPa 0,0 l/m 0 min 0 min 0 W/m 0,0 km/h (0 Bft) 97,87 %
01.12.2020 23:40 6,3 C 5,6 C 6,7 C 100 % 1020,0 hPa 0,0 l/m 0 min 0 min 0 W/m 0,0 km/h (0 Bft) 97,83 %
01.12.2020 23:42 6,2 C 5,6 C 6,7 C 100 % 1020,1 hPa 0,0 l/m 0 min 0 min 0 W/m 0,0 km/h (0 Bft) 97,87 %
01.12.2020 23:44 6,2 C 5,6 C 6,7 C 100 % 1020,1 hPa 0,0 l/m 0 min 0 min 0 W/m 0,0 km/h (0 Bft) 97,87 %
01.12.2020 23:46 6,2 C 5,6 C 6,7 C 100 % 1020,1 hPa 0,0 l/m 0 min 0 min 0 W/m 0,0 km/h (0 Bft) 97,87 %
01.12.2020 23:48 6,2 C 5,6 C 6,7 C 100 % 1020,2 hPa 0,0 l/m 0 min 0 min 0 W/m 0,0 km/h (0 Bft) 97,87 %
01.12.2020 23:50 6,2 C 5,6 C 6,7 C 100 % 1020,1 hPa 0,0 l/m 0 min 0 min 0 W/m 0,0 km/h (0 Bft) 97,87 %
01.12.2020 23:52 6,2 C 5,6 C 6,7 C 100 % 1020,1 hPa 0,0 l/m 0 min 0 min 0 W/m 0,0 km/h (0 Bft) 97,83 %
01.12.2020 23:54 6,2 C 5,6 C 6,7 C 100 % 1020,2 hPa 0,0 l/m 0 min 0 min 0 W/m 0,0 km/h (0 Bft) 97,87 %
01.12.2020 23:56 6,2 C 5,6 C 6,7 C 100 % 1020,2 hPa 0,0 l/m 0 min 0 min 0 W/m 0,0 km/h (0 Bft) 97,87 %
01.12.2020 23:58 6,2 C 5,6 C 6,7 C 100 % 1020,1 hPa 0,0 l/m 0 min 0 min 0 W/m 0,0 km/h (0 Bft) 97,87 %
_ Min-Zeit 00:00 00:00 00:00 00:00 03:46 - - - - 05:14 03:00
Minimum _ 4,5 C 3,9 C 3,9 C 98 % 1012,4 hPa - - - - 0,0 km/h (0 Bft) 50,00 %
_ Max-Zeit 13:08 12:40 12:50 07:56 23:48 00:12 00:00 00:08 10:32 00:12 01:14
Maximum _ 7,8 C 7,2 C 7,8 C 100 % 1020,2 hPa 0,2 l/m 0 min 4 min 96 W/m 45,1 km/h
S-SO (6 Bft)
100,00 %
Durchschnitt _ 6,5 C 5,8 C 6,3 C 100 % 1015,2 hPa #9,2 l/m #0 min. #8:32 h 32 W/m 11,7 km/h (2 Bft) 97,33 %
© 2020 W. Hausmann